Time,TemperatureF,DewpointF,PressureIn,WindDirection,WindDirectionDegrees,WindSpeedMPH,WindSpeedGustMPH,Humidity,HourlyPrecipIn,Conditions,Clouds,dailyrainin,SoftwareType,DateUTC
2013-07-14 00:03:00,62.2,59.6,28.94,WNW,292,0.0,0.0,91,0.00,CLR,,0.00,WeatherDisplay:10.37,2013-07-14 05:03:00,
2013-07-14 00:04:00,62.2,59.6,28.94,WNW,292,0.0,0.0,91,0.00,CLR,,0.00,WeatherDisplay:10.37,2013-07-14 05:04:00,
2013-07-14 00:08:00,62.1,59.4,28.94,WNW,292,0.0,0.0,91,0.00,CLR,,0.00,WeatherDisplay:10.37,2013-07-14 05:08:00,
2013-07-14 00:09:00,62.1,59.4,28.94,WNW,292,0.0,0.0,91,0.00,CLR,,0.00,WeatherDisplay:10.37,2013-07-14 05:09:00,
2013-07-14 00:10:00,62.1,59.4,28.95,WNW,292,0.0,0.0,91,0.00,CLR,,0.00,WeatherDisplay:10.37,2013-07-14 05:10:00,
2013-07-14 00:13:00,62.1,59.4,28.97,WNW,292,0.0,0.0,91,0.00,CLR,,0.00,WeatherDisplay:10.37,2013-07-14 05:13:00,
2013-07-14 00:14:00,62.1,59.4,28.97,WNW,292,0.0,0.0,91,0.00,CLR,,0.00,WeatherDisplay:10.37,2013-07-14 05:14:00,
2013-07-14 00:15:00,62.1,59.4,28.97,WNW,292,0.0,0.0,91,0.00,CLR,,0.00,WeatherDisplay:10.37,2013-07-14 05:15:00,
2013-07-14 00:18:00,61.9,59.5,28.97,WNW,292,0.0,0.0,92,0.00,CLR,,0.00,WeatherDisplay:10.37,2013-07-14 05:18:00,
2013-07-14 00:19:00,61.9,59.5,28.97,WNW,292,0.0,0.0,92,0.00,CLR,,0.00,WeatherDisplay:10.37,2013-07-14 05:19:00,
2013-07-14 00:20:00,61.9,59.5,28.97,WNW,292,0.0,0.0,92,0.00,CLR,,0.00,WeatherDisplay:10.37,2013-07-14 05:20:00,
2013-07-14 00:23:00,61.7,59.4,28.97,WNW,292,0.0,0.0,92,0.00,CLR,,0.00,WeatherDisplay:10.37,2013-07-14 05:23:00,
2013-07-14 00:24:00,61.7,59.4,28.97,WNW,292,0.0,0.0,92,0.00,CLR,,0.00,WeatherDisplay:10.37,2013-07-14 05:24:00,
2013-07-14 00:25:00,61.7,59.4,28.94,WNW,292,0.0,0.0,92,0.00,CLR,,0.00,WeatherDisplay:10.37,2013-07-14 05:25:00,
2013-07-14 00:26:00,61.7,59.4,28.94,WNW,292,0.0,0.0,92,0.00,CLR,,0.00,WeatherDisplay:10.37,2013-07-14 05:26:00,
2013-07-14 00:28:00,61.7,59.4,28.94,WNW,292,0.0,0.0,92,0.00,CLR,,0.00,WeatherDisplay:10.37,2013-07-14 05:28:00,
2013-07-14 00:29:00,61.9,59.5,28.94,WSW,248,0.0,0.0,92,0.00,CLR,,0.00,WeatherDisplay:10.37,2013-07-14 05:29:00,
2013-07-14 00:30:00,61.9,59.5,28.94,WSW,248,0.0,0.0,92,0.00,CLR,,0.00,WeatherDisplay:10.37,2013-07-14 05:30:00,
2013-07-14 00:32:00,61.9,59.5,28.94,WSW,248,0.0,0.0,92,0.00,CLR,,0.00,WeatherDisplay:10.37,2013-07-14 05:32:00,
2013-07-14 00:33:00,62.1,60.0,28.94,WSW,248,0.0,0.0,93,0.00,CLR,,0.00,WeatherDisplay:10.37,2013-07-14 05:33:00,
2013-07-14 00:34:00,62.1,60.0,28.94,WSW,248,0.0,0.0,93,0.00,CLR,,0.00,WeatherDisplay:10.37,2013-07-14 05:34:00,
2013-07-14 00:35:00,62.2,60.2,28.94,WSW,248,0.0,0.0,93,0.00,CLR,,0.00,WeatherDisplay:10.37,2013-07-14 05:35:00,
2013-07-14 00:37:00,62.1,60.0,28.94,WSW,248,0.0,0.0,93,0.00,CLR,,0.00,WeatherDisplay:10.37,2013-07-14 05:37:00,
2013-07-14 00:38:00,62.1,60.0,28.94,WSW,248,0.0,0.0,93,0.00,CLR,,0.00,WeatherDisplay:10.37,2013-07-14 05:38:00,
2013-07-14 00:39:00,61.9,59.8,28.94,NNW,338,0.0,0.0,93,0.00,CLR,,0.00,WeatherDisplay:10.37,2013-07-14 05:39:00,
2013-07-14 00:40:00,61.9,59.8,28.97,NNW,338,0.0,0.0,93,0.00,CLR,,0.00,WeatherDisplay:10.37,2013-07-14 05:40:00,
2013-07-14 00:42:00,61.5,59.2,28.97,NW,315,2.0,0.0,92,0.00,CLR,,0.00,WeatherDisplay:10.37,2013-07-14 05:42:00,
2013-07-14 00:43:00,61.5,59.2,28.97,NW,315,2.3,2.3,92,0.00,CLR,,0.00,WeatherDisplay:10.37,2013-07-14 05:43:00,
2013-07-14 00:45:00,61.5,59.2,28.97,WNW,303,0.0,2.0,92,0.00,CLR,,0.00,WeatherDisplay:10.37,2013-07-14 05:45:00,
2013-07-14 00:46:00,61.5,59.2,28.97,NW,315,0.0,0.0,92,0.00,CLR,,0.00,WeatherDisplay:10.37,2013-07-14 05:46:00,
2013-07-14 00:48:00,61.3,59.0,28.97,NW,315,0.0,0.0,92,0.00,CLR,,0.00,WeatherDisplay:10.37,2013-07-14 05:48:00,
2013-07-14 00:50:00,61.2,58.8,28.97,NW,315,0.0,0.0,92,0.00,CLR,,0.00,WeatherDisplay:10.37,2013-07-14 05:50:00,
2013-07-14 00:51:00,61.0,58.6,28.97,NW,315,0.0,0.0,92,0.00,CLR,,0.00,WeatherDisplay:10.37,2013-07-14 05:51:00,
2013-07-14 00:53:00,61.0,58.6,28.97,NW,315,0.0,0.0,92,0.00,CLR,,0.00,WeatherDisplay:10.37,2013-07-14 05:53:00,
2013-07-14 00:54:00,61.0,58.6,28.97,NW,315,0.0,0.0,92,0.00,CLR,,0.00,WeatherDisplay:10.37,2013-07-14 05:54:00,
2013-07-14 00:55:00,61.0,58.6,28.97,NW,315,0.0,0.0,92,0.00,CLR,,0.00,WeatherDisplay:10.37,2013-07-14 05:55:00,
2013-07-14 00:56:00,61.0,58.6,28.97,NW,315,0.0,0.0,92,0.00,CLR,,0.00,WeatherDisplay:10.37,2013-07-14 05:56:00,
2013-07-14 00:59:00,61.0,58.9,28.97,NW,315,0.0,0.0,93,0.00,CLR,,0.00,WeatherDisplay:10.37,2013-07-14 05:59:00,
2013-07-14 01:00:00,61.0,58.9,28.97,NW,315,0.0,0.0,93,0.00,CLR,,0.00,WeatherDisplay:10.37,2013-07-14 06:00:00,
2013-07-14 01:01:00,61.0,58.9,28.97,NW,315,0.0,0.0,93,0.00,CLR,,0.00,WeatherDisplay:10.37,2013-07-14 06:01:00,
2013-07-14 01:04:00,60.8,58.8,28.97,NW,315,0.0,0.0,93,0.00,CLR,,0.00,WeatherDisplay:10.37,2013-07-14 06:04:00,
2013-07-14 01:05:00,60.6,58.6,28.97,NW,315,0.0,0.0,93,0.00,CLR,,0.00,WeatherDisplay:10.37,2013-07-14 06:05:00,
2013-07-14 01:06:00,60.6,58.6,28.97,NW,315,0.0,0.0,93,0.00,CLR,,0.00,WeatherDisplay:10.37,2013-07-14 06:06:00,
2013-07-14 01:09:00,60.4,58.4,28.97,NW,315,0.0,0.0,93,0.00,CLR,,0.00,WeatherDisplay:10.37,2013-07-14 06:09:00,
2013-07-14 01:11:00,60.3,58.2,28.97,NW,315,0.0,0.0,93,0.00,CLR,,0.00,WeatherDisplay:10.37,2013-07-14 06:11:00,
2013-07-14 01:14:00,60.3,58.2,28.97,NW,315,0.0,0.0,93,0.00,CLR,,0.00,WeatherDisplay:10.37,2013-07-14 06:14:00,
2013-07-14 01:16:00,60.3,58.2,28.97,NW,315,0.0,0.0,93,0.00,CLR,,0.00,WeatherDisplay:10.37,2013-07-14 06:16:00,
2013-07-14 01:19:00,60.1,58.0,28.97,NW,315,0.0,0.0,93,0.00,CLR,,0.00,WeatherDisplay:10.37,2013-07-14 06:19:00,
2013-07-14 01:21:00,59.9,57.9,28.97,NW,315,0.0,0.0,93,0.00,CLR,,0.00,WeatherDisplay:10.37,2013-07-14 06:21:00,
2013-07-14 01:24:00,59.7,57.7,28.97,NW,315,0.0,0.0,93,0.00,CLR,,0.00,WeatherDisplay:10.37,2013-07-14 06:24:00,
2013-07-14 01:26:00,59.7,57.7,28.97,NW,315,0.0,0.0,93,0.00,CLR,,0.00,WeatherDisplay:10.37,2013-07-14 06:26:00,
2013-07-14 01:27:00,59.7,57.7,28.97,NW,315,0.0,0.0,93,0.00,CLR,,0.00,WeatherDisplay:10.37,2013-07-14 06:27:00,
2013-07-14 01:29:00,59.7,57.7,28.97,NW,315,0.0,0.0,93,0.00,CLR,,0.00,WeatherDisplay:10.37,2013-07-14 06:29:00,
2013-07-14 01:30:00,59.7,57.7,28.97,NW,315,0.0,0.0,93,0.00,CLR,,0.00,WeatherDisplay:10.37,2013-07-14 06:30:00,
2013-07-14 01:31:00,59.5,57.5,28.97,NW,315,0.0,0.0,93,0.00,CLR,,0.00,WeatherDisplay:10.37,2013-07-14 06:31:00,
2013-07-14 01:32:00,59.5,57.5,28.97,NW,315,0.0,0.0,93,0.00,CLR,,0.00,WeatherDisplay:10.37,2013-07-14 06:32:00,
2013-07-14 01:35:00,59.7,58.0,28.97,SSW,202,0.0,0.0,94,0.00,CLR,,0.00,WeatherDisplay:10.37,2013-07-14 06:35:00,
2013-07-14 01:36:00,59.7,58.0,28.97,SSW,202,1.2,0.0,94,0.00,CLR,,0.00,WeatherDisplay:10.37,2013-07-14 06:36:00,
2013-07-14 01:37:00,59.7,58.0,28.97,SSW,202,1.2,0.0,94,0.00,CLR,,0.00,WeatherDisplay:10.37,2013-07-14 06:37:00,
2013-07-14 01:40:00,59.7,58.0,28.97,SSW,202,0.0,0.0,94,0.00,CLR,,0.00,WeatherDisplay:10.37,2013-07-14 06:40:00,
2013-07-14 01:42:00,59.7,58.0,28.97,SSW,202,0.0,0.0,94,0.00,CLR,,0.00,WeatherDisplay:10.37,2013-07-14 06:42:00,
2013-07-14 01:45:00,59.5,57.8,28.97,SSW,202,0.0,0.0,94,0.00,CLR,,0.00,WeatherDisplay:10.37,2013-07-14 06:45:00,
2013-07-14 01:47:00,59.4,57.6,28.97,SSW,202,0.0,0.0,94,0.00,CLR,,0.00,WeatherDisplay:10.37,2013-07-14 06:47:00,
2013-07-14 01:50:00,59.2,57.5,28.97,WSW,248,0.0,0.0,94,0.00,CLR,,0.00,WeatherDisplay:10.37,2013-07-14 06:50:00,
2013-07-14 01:52:00,59.2,57.5,28.97,WSW,248,0.0,0.0,94,0.00,CLR,,0.00,WeatherDisplay:10.37,2013-07-14 06:52:00,
2013-07-14 01:53:00,59.2,57.5,28.97,WSW,248,0.0,0.0,94,0.00,CLR,,0.00,WeatherDisplay:10.37,2013-07-14 06:53:00,
2013-07-14 01:55:00,59.2,57.5,28.97,WSW,248,0.0,0.0,94,0.00,CLR,,0.00,WeatherDisplay:10.37,2013-07-14 06:55:00,
2013-07-14 01:57:00,59.2,57.5,28.97,WSW,248,0.0,0.0,94,0.00,CLR,,0.00,WeatherDisplay:10.37,2013-07-14 06:57:00,
2013-07-14 01:58:00,59.4,57.6,28.97,WSW,248,0.0,0.0,94,0.00,CLR,,0.00,WeatherDisplay:10.37,2013-07-14 06:58:00,
2013-07-14 02:00:00,59.4,57.6,28.97,WSW,248,0.0,0.0,94,0.00,CLR,,0.00,WeatherDisplay:10.37,2013-07-14 07:00:00,
2013-07-14 02:01:00,59.4,57.6,28.97,WSW,248,0.0,0.0,94,0.00,CLR,,0.00,WeatherDisplay:10.37,2013-07-14 07:01:00,
2013-07-14 02:03:00,59.4,57.6,28.97,WSW,248,0.0,0.0,94,0.00,CLR,,0.00,WeatherDisplay:10.37,2013-07-14 07:03:00,
2013-07-14 02:06:00,59.4,57.9,28.97,South,180,0.0,0.0,95,0.00,CLR,,0.00,WeatherDisplay:10.37,2013-07-14 07:06:00,
2013-07-14 02:08:00,59.5,58.1,28.97,South,180,0.0,0.0,95,0.00,CLR,,0.00,WeatherDisplay:10.37,2013-07-14 07:08:00,
2013-07-14 02:09:00,59.5,58.1,28.97,South,180,0.0,0.0,95,0.00,CLR,,0.00,WeatherDisplay:10.37,2013-07-14 07:09:00,
2013-07-14 02:11:00,59.4,57.9,28.97,South,180,0.0,0.0,95,0.00,CLR,,0.00,WeatherDisplay:10.37,2013-07-14 07:11:00,
2013-07-14 02:13:00,59.4,57.9,28.97,South,180,0.0,0.0,95,0.00,CLR,,0.00,WeatherDisplay:10.37,2013-07-14 07:13:00,
2013-07-14 02:14:00,59.2,57.7,28.97,South,180,0.0,0.0,95,0.00,CLR,,0.00,WeatherDisplay:10.37,2013-07-14 07:14:00,
2013-07-14 02:16:00,59.2,57.7,28.97,South,180,0.0,0.0,95,0.00,CLR,,0.00,WeatherDisplay:10.37,2013-07-14 07:16:00,
2013-07-14 02:17:00,59.2,57.7,28.97,South,180,0.0,0.0,95,0.00,CLR,,0.00,WeatherDisplay:10.37,2013-07-14 07:17:00,
2013-07-14 02:18:00,59.0,57.6,28.97,South,180,0.0,0.0,95,0.00,CLR,,0.00,WeatherDisplay:10.37,2013-07-14 07:18:00,
2013-07-14 02:19:00,59.0,57.6,28.97,South,180,0.0,0.0,95,0.00,CLR,,0.00,WeatherDisplay:10.37,2013-07-14 07:19:00,
2013-07-14 02:21:00,58.8,57.4,28.97,South,180,0.0,0.0,95,0.00,CLR,,0.00,WeatherDisplay:10.37,2013-07-14 07:21:00,
2013-07-14 02:22:00,58.8,57.4,28.97,South,180,0.0,0.0,95,0.00,CLR,,0.00,WeatherDisplay:10.37,2013-07-14 07:22:00,
2013-07-14 02:23:00,59.0,57.6,28.97,South,180,0.0,0.0,95,0.00,CLR,,0.00,WeatherDisplay:10.37,2013-07-14 07:23:00,
2013-07-14 02:24:00,58.8,57.4,28.97,South,180,0.0,0.0,95,0.00,CLR,,0.00,WeatherDisplay:10.37,2013-07-14 07:24:00,
2013-07-14 02:26:00,58.8,57.4,28.97,South,180,0.0,0.0,95,0.00,CLR,,0.00,WeatherDisplay:10.37,2013-07-14 07:26:00,
2013-07-14 02:27:00,58.8,57.4,28.97,South,180,0.0,0.0,95,0.00,CLR,,0.00,WeatherDisplay:10.37,2013-07-14 07:27:00,
2013-07-14 02:29:00,58.8,57.4,28.97,South,180,0.0,0.0,95,0.00,CLR,,0.00,WeatherDisplay:10.37,2013-07-14 07:29:00,
2013-07-14 02:31:00,59.0,57.3,28.97,South,180,0.0,0.0,94,0.00,CLR,,0.00,WeatherDisplay:10.37,2013-07-14 07:31:00,
2013-07-14 02:32:00,59.0,57.3,28.97,South,180,0.0,0.0,94,0.00,CLR,,0.00,WeatherDisplay:10.37,2013-07-14 07:32:00,
2013-07-14 02:34:00,59.0,57.3,28.97,South,180,0.0,0.0,94,0.00,CLR,,0.00,WeatherDisplay:10.37,2013-07-14 07:34:00,
2013-07-14 02:37:00,58.8,57.4,28.97,South,180,0.0,0.0,95,0.00,CLR,,0.00,WeatherDisplay:10.37,2013-07-14 07:37:00,
2013-07-14 02:38:00,58.8,57.4,28.97,South,180,0.0,0.0,95,0.00,CLR,,0.00,WeatherDisplay:10.37,2013-07-14 07:38:00,
2013-07-14 02:39:00,58.8,57.4,28.97,South,180,0.0,0.0,95,0.00,CLR,,0.00,WeatherDisplay:10.37,2013-07-14 07:39:00,
2013-07-14 02:42:00,58.6,57.2,28.97,South,180,0.0,0.0,95,0.00,CLR,,0.00,WeatherDisplay:10.37,2013-07-14 07:42:00,
2013-07-14 02:43:00,58.6,57.2,28.97,South,180,0.0,0.0,95,0.00,CLR,,0.00,WeatherDisplay:10.37,2013-07-14 07:43:00,
2013-07-14 02:44:00,58.6,57.2,28.97,South,180,0.0,0.0,95,0.00,CLR,,0.00,WeatherDisplay:10.37,2013-07-14 07:44:00,
2013-07-14 02:45:00,58.6,57.2,28.97,South,180,0.0,0.0,95,0.00,CLR,,0.00,WeatherDisplay:10.37,2013-07-14 07:45:00,
2013-07-14 02:47:00,58.6,57.2,28.97,South,180,0.0,0.0,95,0.00,CLR,,0.00,WeatherDisplay:10.37,2013-07-14 07:47:00,
2013-07-14 02:48:00,58.6,57.2,28.97,South,180,0.0,0.0,95,0.00,CLR,,0.00,WeatherDisplay:10.37,2013-07-14 07:48:00,
2013-07-14 02:49:00,58.6,57.2,28.97,South,180,0.0,0.0,95,0.00,CLR,,0.00,WeatherDisplay:10.37,2013-07-14 07:49:00,
2013-07-14 02:50:00,58.6,57.2,28.97,South,180,0.0,0.0,95,0.00,CLR,,0.00,WeatherDisplay:10.37,2013-07-14 07:50:00,
2013-07-14 02:52:00,58.6,57.2,28.97,South,180,0.0,0.0,95,0.00,CLR,,0.00,WeatherDisplay:10.37,2013-07-14 07:52:00,
2013-07-14 02:53:00,58.5,57.0,28.97,South,180,0.0,0.0,95,0.00,CLR,,0.00,WeatherDisplay:10.37,2013-07-14 07:53:00,
2013-07-14 02:54:00,58.5,57.0,28.97,South,180,0.0,0.0,95,0.00,CLR,,0.00,WeatherDisplay:10.37,2013-07-14 07:54:00,
2013-07-14 02:55:00,58.5,57.0,28.97,South,180,0.0,0.0,95,0.00,CLR,,0.00,WeatherDisplay:10.37,2013-07-14 07:55:00,
2013-07-14 02:58:00,58.3,56.9,28.97,South,180,0.0,0.0,95,0.00,CLR,,0.00,WeatherDisplay:10.37,2013-07-14 07:58:00,
2013-07-14 02:59:00,58.3,56.9,28.97,South,180,0.0,0.0,95,0.00,CLR,,0.00,WeatherDisplay:10.37,2013-07-14 07:59:00,
2013-07-14 03:00:00,58.3,56.9,28.97,South,180,0.0,0.0,95,0.00,CLR,,0.00,WeatherDisplay:10.37,2013-07-14 08:00:00,
2013-07-14 03:03:00,58.1,56.7,28.97,South,180,0.0,0.0,95,0.00,CLR,,0.00,WeatherDisplay:10.37,2013-07-14 08:03:00,
2013-07-14 03:04:00,58.1,56.7,28.97,South,180,0.0,0.0,95,0.00,CLR,,0.00,WeatherDisplay:10.37,2013-07-14 08:04:00,
2013-07-14 03:05:00,58.1,56.7,28.97,South,180,0.0,0.0,95,0.00,CLR,,0.00,WeatherDisplay:10.37,2013-07-14 08:05:00,
2013-07-14 03:06:00,58.1,56.7,28.97,South,180,0.0,0.0,95,0.00,CLR,,0.00,WeatherDisplay:10.37,2013-07-14 08:06:00,
2013-07-14 03:08:00,57.9,56.5,28.97,South,180,0.0,0.0,95,0.00,CLR,,0.00,WeatherDisplay:10.37,2013-07-14 08:08:00,
2013-07-14 03:09:00,57.9,56.5,28.97,South,180,0.0,0.0,95,0.00,CLR,,0.00,WeatherDisplay:10.37,2013-07-14 08:09:00,
2013-07-14 03:10:00,57.9,56.5,28.97,South,180,0.0,0.0,95,0.00,CLR,,0.00,WeatherDisplay:10.37,2013-07-14 08:10:00,
2013-07-14 03:11:00,57.9,56.5,28.97,South,180,0.0,0.0,95,0.00,CLR,,0.00,WeatherDisplay:10.37,2013-07-14 08:11:00,
2013-07-14 03:13:00,57.7,56.3,28.97,South,180,0.0,0.0,95,0.00,CLR,,0.00,WeatherDisplay:10.37,2013-07-14 08:13:00,
2013-07-14 03:14:00,57.7,56.3,28.97,South,180,0.0,0.0,95,0.00,CLR,,0.00,WeatherDisplay:10.37,2013-07-14 08:14:00,
2013-07-14 03:15:00,57.7,56.3,28.97,South,180,0.0,0.0,95,0.00,CLR,,0.00,WeatherDisplay:10.37,2013-07-14 08:15:00,
2013-07-14 03:17:00,57.6,56.1,28.97,South,180,0.0,0.0,95,0.00,CLR,,0.00,WeatherDisplay:10.37,2013-07-14 08:17:00,
2013-07-14 03:19:00,57.6,56.1,28.97,South,180,0.0,0.0,95,0.00,CLR,,0.00,WeatherDisplay:10.37,2013-07-14 08:19:00,
2013-07-14 03:20:00,57.4,56.0,28.97,South,180,0.0,0.0,95,0.00,CLR,,0.00,WeatherDisplay:10.37,2013-07-14 08:20:00,
2013-07-14 03:22:00,57.4,56.0,28.97,South,180,0.0,0.0,95,0.00,CLR,,0.00,WeatherDisplay:10.37,2013-07-14 08:22:00,
2013-07-14 03:24:00,57.4,56.0,28.94,South,180,0.0,0.0,95,0.00,CLR,,0.00,WeatherDisplay:10.37,2013-07-14 08:24:00,
2013-07-14 03:25:00,57.4,56.0,28.94,South,180,0.0,0.0,95,0.00,CLR,,0.00,WeatherDisplay:10.37,2013-07-14 08:25:00,
2013-07-14 03:27:00,57.2,55.8,28.94,South,180,0.0,0.0,95,0.00,CLR,,0.00,WeatherDisplay:10.37,2013-07-14 08:27:00,
2013-07-14 03:29:00,57.2,55.8,28.94,South,180,0.0,0.0,95,0.00,CLR,,0.00,WeatherDisplay:10.37,2013-07-14 08:29:00,
2013-07-14 03:30:00,57.2,55.8,28.94,South,180,0.0,0.0,95,0.00,CLR,,0.00,WeatherDisplay:10.37,2013-07-14 08:30:00,
2013-07-14 03:31:00,57.4,56.0,28.94,South,180,0.0,0.0,95,0.00,CLR,,0.00,WeatherDisplay:10.37,2013-07-14 08:31:00,
2013-07-14 03:33:00,57.4,56.0,28.94,South,180,0.0,0.0,95,0.00,CLR,,0.00,WeatherDisplay:10.37,2013-07-14 08:33:00,
2013-07-14 03:34:00,57.4,56.0,28.94,South,180,0.0,0.0,95,0.00,CLR,,0.00,WeatherDisplay:10.37,2013-07-14 08:34:00,
2013-07-14 03:35:00,57.4,56.0,28.94,South,180,0.0,0.0,95,0.00,CLR,,0.00,WeatherDisplay:10.37,2013-07-14 08:35:00,
2013-07-14 03:36:00,57.4,56.0,28.94,South,180,0.0,0.0,95,0.00,CLR,,0.00,WeatherDisplay:10.37,2013-07-14 08:36:00,
2013-07-14 03:39:00,57.2,56.1,28.94,South,180,0.0,0.0,96,0.00,CLR,,0.00,WeatherDisplay:10.37,2013-07-14 08:39:00,
2013-07-14 03:40:00,57.2,56.1,29.00,South,180,0.0,0.0,96,0.00,CLR,,0.00,WeatherDisplay:10.37,2013-07-14 08:40:00,
2013-07-14 03:41:00,57.2,56.1,29.00,South,180,0.0,0.0,96,0.00,CLR,,0.00,WeatherDisplay:10.37,2013-07-14 08:41:00,
2013-07-14 03:42:00,57.0,55.9,29.00,South,180,0.0,0.0,96,0.00,CLR,,0.00,WeatherDisplay:10.37,2013-07-14 08:42:00,
2013-07-14 03:44:00,57.0,55.9,29.00,South,180,0.0,0.0,96,0.00,CLR,,0.00,WeatherDisplay:10.37,2013-07-14 08:44:00,
2013-07-14 03:45:00,57.0,55.9,29.00,South,180,0.0,0.0,96,0.00,CLR,,0.00,WeatherDisplay:10.37,2013-07-14 08:45:00,
2013-07-14 03:46:00,56.8,55.7,29.00,South,180,0.0,0.0,96,0.00,CLR,,0.00,WeatherDisplay:10.37,2013-07-14 08:46:00,
2013-07-14 03:47:00,56.8,55.7,29.00,South,180,0.0,0.0,96,0.00,CLR,,0.00,WeatherDisplay:10.37,2013-07-14 08:47:00,
2013-07-14 03:49:00,56.8,55.7,29.00,South,180,0.0,0.0,96,0.00,CLR,,0.00,WeatherDisplay:10.37,2013-07-14 08:49:00,
2013-07-14 03:50:00,56.8,55.7,29.00,South,180,0.0,0.0,96,0.00,CLR,,0.00,WeatherDisplay:10.37,2013-07-14 08:50:00,
2013-07-14 03:51:00,56.8,55.7,29.00,South,180,0.0,0.0,96,0.00,CLR,,0.00,WeatherDisplay:10.37,2013-07-14 08:51:00,
2013-07-14 03:52:00,56.8,55.7,29.00,South,180,0.0,0.0,96,0.00,CLR,,0.00,WeatherDisplay:10.37,2013-07-14 08:52:00,
2013-07-14 03:54:00,56.8,55.7,29.00,South,180,0.0,0.0,96,0.00,CLR,,0.00,WeatherDisplay:10.37,2013-07-14 08:54:00,
2013-07-14 03:55:00,56.8,55.7,28.97,South,180,0.0,0.0,96,0.00,CLR,,0.00,WeatherDisplay:10.37,2013-07-14 08:55:00,
2013-07-14 03:56:00,56.8,55.7,28.97,South,180,0.0,0.0,96,0.00,CLR,,0.00,WeatherDisplay:10.37,2013-07-14 08:56:00,
2013-07-14 03:57:00,56.8,55.7,28.97,South,180,0.0,0.0,96,0.00,CLR,,0.00,WeatherDisplay:10.37,2013-07-14 08:57:00,
2013-07-14 04:00:00,56.8,55.7,28.97,South,180,0.0,0.0,96,0.00,CLR,,0.00,WeatherDisplay:10.37,2013-07-14 09:00:00,
2013-07-14 04:01:00,56.8,55.7,28.97,South,180,0.0,0.0,96,0.00,CLR,,0.00,WeatherDisplay:10.37,2013-07-14 09:01:00,
2013-07-14 04:02:00,56.8,55.7,28.97,South,180,0.0,0.0,96,0.00,CLR,,0.00,WeatherDisplay:10.37,2013-07-14 09:02:00,
2013-07-14 04:03:00,56.8,55.7,28.97,South,180,0.0,0.0,96,0.00,CLR,,0.00,WeatherDisplay:10.37,2013-07-14 09:03:00,
2013-07-14 04:05:00,56.8,55.7,28.97,South,180,0.0,0.0,96,0.00,CLR,,0.00,WeatherDisplay:10.37,2013-07-14 09:05:00,
2013-07-14 04:07:00,56.8,55.7,28.97,South,180,0.0,0.0,96,0.00,CLR,,0.00,WeatherDisplay:10.37,2013-07-14 09:07:00,
2013-07-14 04:08:00,56.8,55.7,28.97,South,180,0.0,0.0,96,0.00,CLR,,0.00,WeatherDisplay:10.37,2013-07-14 09:08:00,
2013-07-14 04:10:00,56.7,55.5,28.97,South,180,0.0,0.0,96,0.00,CLR,,0.00,WeatherDisplay:10.37,2013-07-14 09:10:00,
2013-07-14 04:12:00,56.7,55.5,28.97,South,180,0.0,0.0,96,0.00,CLR,,0.00,WeatherDisplay:10.37,2013-07-14 09:12:00,
2013-07-14 04:13:00,56.7,55.5,28.97,South,180,0.0,0.0,96,0.00,CLR,,0.00,WeatherDisplay:10.37,2013-07-14 09:13:00,
2013-07-14 04:16:00,56.7,55.5,28.97,South,180,0.0,0.0,96,0.00,CLR,,0.00,WeatherDisplay:10.37,2013-07-14 09:16:00,
2013-07-14 04:17:00,56.7,55.8,28.97,South,180,0.0,0.0,97,0.00,CLR,,0.00,WeatherDisplay:10.37,2013-07-14 09:17:00,
2013-07-14 04:18:00,56.7,55.8,28.97,South,180,0.0,0.0,97,0.00,CLR,,0.00,WeatherDisplay:10.37,2013-07-14 09:18:00,
2013-07-14 04:21:00,56.7,55.8,28.97,South,180,0.0,0.0,97,0.00,CLR,,0.00,WeatherDisplay:10.37,2013-07-14 09:21:00,
2013-07-14 04:22:00,56.7,55.8,28.97,South,180,0.0,0.0,97,0.00,CLR,,0.00,WeatherDisplay:10.37,2013-07-14 09:22:00,
2013-07-14 04:23:00,56.7,55.8,28.97,South,180,0.0,0.0,97,0.00,CLR,,0.00,WeatherDisplay:10.37,2013-07-14 09:23:00,
2013-07-14 04:26:00,56.7,55.8,28.97,South,180,0.0,0.0,97,0.00,CLR,,0.00,WeatherDisplay:10.37,2013-07-14 09:26:00,
2013-07-14 04:27:00,56.7,55.8,28.97,South,180,0.0,0.0,97,0.00,CLR,,0.00,WeatherDisplay:10.37,2013-07-14 09:27:00,
2013-07-14 04:28:00,56.7,55.8,28.97,South,180,0.0,0.0,97,0.00,CLR,,0.00,WeatherDisplay:10.37,2013-07-14 09:28:00,
2013-07-14 04:31:00,56.7,55.8,28.97,South,180,0.0,0.0,97,0.00,CLR,,0.00,WeatherDisplay:10.37,2013-07-14 09:31:00,
2013-07-14 04:33:00,56.7,55.8,28.97,South,180,0.0,0.0,97,0.00,CLR,,0.00,WeatherDisplay:10.37,2013-07-14 09:33:00,
2013-07-14 04:34:00,56.7,55.8,28.97,South,180,0.0,0.0,97,0.00,CLR,,0.00,WeatherDisplay:10.37,2013-07-14 09:34:00,
2013-07-14 04:36:00,56.8,56.0,28.97,South,180,0.0,0.0,97,0.00,CLR,,0.00,WeatherDisplay:10.37,2013-07-14 09:36:00,
2013-07-14 04:38:00,56.8,56.0,28.97,South,180,0.0,0.0,97,0.00,CLR,,0.00,WeatherDisplay:10.37,2013-07-14 09:38:00,
2013-07-14 04:39:00,56.7,55.8,28.97,South,180,0.0,0.0,97,0.00,CLR,,0.00,WeatherDisplay:10.37,2013-07-14 09:39:00,
2013-07-14 04:41:00,56.7,55.8,29.00,South,180,0.0,0.0,97,0.00,CLR,,0.00,WeatherDisplay:10.37,2013-07-14 09:41:00,
2013-07-14 04:42:00,56.7,55.8,29.00,South,180,0.0,0.0,97,0.00,CLR,,0.00,WeatherDisplay:10.37,2013-07-14 09:42:00,
2013-07-14 04:43:00,56.7,55.8,29.00,South,180,0.0,0.0,97,0.00,CLR,,0.00,WeatherDisplay:10.37,2013-07-14 09:43:00,
2013-07-14 04:44:00,56.7,55.8,29.00,South,180,0.0,0.0,97,0.00,CLR,,0.00,WeatherDisplay:10.37,2013-07-14 09:44:00,
2013-07-14 04:46:00,56.5,55.6,29.00,South,180,0.0,0.0,97,0.00,CLR,,0.00,WeatherDisplay:10.37,2013-07-14 09:46:00,
2013-07-14 04:48:00,56.5,55.6,29.00,South,180,0.0,0.0,97,0.00,CLR,,0.00,WeatherDisplay:10.37,2013-07-14 09:48:00,
2013-07-14 04:49:00,56.5,55.4,29.00,South,180,0.0,0.0,96,0.00,CLR,,0.00,WeatherDisplay:10.37,2013-07-14 09:49:00,
2013-07-14 04:52:00,56.7,55.8,29.00,South,180,0.0,0.0,97,0.00,CLR,,0.00,WeatherDisplay:10.37,2013-07-14 09:52:00,
2013-07-14 04:53:00,56.7,55.8,29.00,South,180,0.0,0.0,97,0.00,CLR,,0.00,WeatherDisplay:10.37,2013-07-14 09:53:00,
2013-07-14 04:54:00,56.7,55.8,29.00,South,180,0.0,0.0,97,0.00,CLR,,0.00,WeatherDisplay:10.37,2013-07-14 09:54:00,
2013-07-14 04:55:00,56.7,55.8,28.94,South,180,0.0,0.0,97,0.00,CLR,,0.00,WeatherDisplay:10.37,2013-07-14 09:55:00,
2013-07-14 04:57:00,56.7,55.8,28.94,South,180,0.0,0.0,97,0.00,CLR,,0.00,WeatherDisplay:10.37,2013-07-14 09:57:00,
2013-07-14 04:58:00,56.7,55.5,28.94,South,180,0.0,0.0,96,0.00,CLR,,0.00,WeatherDisplay:10.37,2013-07-14 09:58:00,
2013-07-14 04:59:00,56.7,55.5,28.94,South,180,0.0,0.0,96,0.00,CLR,,0.00,WeatherDisplay:10.37,2013-07-14 09:59:00,
2013-07-14 05:00:00,56.7,55.5,28.94,South,180,0.0,0.0,96,0.00,CLR,,0.00,WeatherDisplay:10.37,2013-07-14 10:00:00,
2013-07-14 05:03:00,56.5,55.4,28.94,South,180,0.0,0.0,96,0.00,CLR,,0.00,WeatherDisplay:10.37,2013-07-14 10:03:00,
2013-07-14 05:04:00,56.5,55.4,28.94,South,180,0.0,0.0,96,0.00,CLR,,0.00,WeatherDisplay:10.37,2013-07-14 10:04:00,
2013-07-14 05:05:00,56.5,55.4,28.94,South,180,0.0,0.0,96,0.00,CLR,,0.00,WeatherDisplay:10.37,2013-07-14 10:05:00,
2013-07-14 05:08:00,56.5,55.4,28.94,South,180,0.0,0.0,96,0.00,CLR,,0.00,WeatherDisplay:10.37,2013-07-14 10:08:00,
2013-07-14 05:09:00,56.5,55.4,28.94,South,180,0.0,0.0,96,0.00,CLR,,0.00,WeatherDisplay:10.37,2013-07-14 10:09:00,
2013-07-14 05:10:00,56.5,55.4,28.97,South,180,0.0,0.0,96,0.00,CLR,,0.00,WeatherDisplay:10.37,2013-07-14 10:10:00,
2013-07-14 05:13:00,56.8,56.0,28.97,SSE,158,0.0,0.0,97,0.00,CLR,,0.00,WeatherDisplay:10.37,2013-07-14 10:13:00,
2013-07-14 05:14:00,56.8,56.0,28.97,SSE,158,2.0,0.0,97,0.00,CLR,,0.00,WeatherDisplay:10.37,2013-07-14 10:14:00,
2013-07-14 05:15:00,56.8,56.0,28.97,SSE,158,2.3,0.0,97,0.00,CLR,,0.00,WeatherDisplay:10.37,2013-07-14 10:15:00,
2013-07-14 05:18:00,56.8,56.0,28.97,SSE,158,2.3,2.3,97,0.00,CLR,,0.00,WeatherDisplay:10.37,2013-07-14 10:18:00,
2013-07-14 05:19:00,56.8,56.0,28.97,SSE,158,2.3,0.0,97,0.00,CLR,,0.00,WeatherDisplay:10.37,2013-07-14 10:19:00,
2013-07-14 05:20:00,57.0,56.2,28.97,SSE,158,2.4,0.0,97,0.00,CLR,,0.00,WeatherDisplay:10.37,2013-07-14 10:20:00,
2013-07-14 05:21:00,57.2,56.4,28.97,SW,225,2.3,2.3,97,0.00,CLR,,0.00,WeatherDisplay:10.37,2013-07-14 10:21:00,
2013-07-14 05:23:00,57.4,56.8,28.97,SE,135,1.2,1.2,98,0.00,CLR,,0.00,WeatherDisplay:10.37,2013-07-14 10:23:00,
2013-07-14 05:24:00,57.4,56.8,28.97,SE,135,1.2,0.0,98,0.00,CLR,,0.00,WeatherDisplay:10.37,2013-07-14 10:24:00,
2013-07-14 05:25:00,57.6,57.0,28.97,SE,135,0.0,0.0,98,0.00,CLR,,0.00,WeatherDisplay:10.37,2013-07-14 10:25:00,
2013-07-14 05:26:00,57.6,57.0,28.97,SSE,158,1.2,0.0,98,0.00,CLR,,0.00,WeatherDisplay:10.37,2013-07-14 10:26:00,
2013-07-14 05:29:00,57.6,57.0,28.97,SE,135,2.3,2.3,98,0.00,CLR,,0.00,WeatherDisplay:10.37,2013-07-14 10:29:00,
2013-07-14 05:30:00,57.6,57.0,28.97,SE,135,1.6,1.6,98,0.00,CLR,,0.00,WeatherDisplay:10.37,2013-07-14 10:30:00,
2013-07-14 05:31:00,57.7,57.2,28.97,SE,135,2.3,2.3,98,0.00,CLR,,0.00,WeatherDisplay:10.37,2013-07-14 10:31:00,
2013-07-14 05:34:00,57.7,57.2,28.97,ESE,112,2.3,2.3,98,0.00,CLR,,0.00,WeatherDisplay:10.37,2013-07-14 10:34:00,
2013-07-14 05:35:00,57.7,57.2,28.97,SSE,158,0.0,0.0,98,0.00,CLR,,0.00,WeatherDisplay:10.37,2013-07-14 10:35:00,
2013-07-14 05:36:00,57.7,57.2,28.97,SSE,158,2.6,0.0,98,0.00,CLR,,0.00,WeatherDisplay:10.37,2013-07-14 10:36:00,
2013-07-14 05:39:00,57.9,57.4,28.97,SE,135,0.9,0.0,98,0.00,CLR,,0.00,WeatherDisplay:10.37,2013-07-14 10:39:00,
2013-07-14 05:40:00,57.9,57.4,28.97,ESE,112,1.6,0.0,98,0.00,CLR,,0.00,WeatherDisplay:10.37,2013-07-14 10:40:00,
2013-07-14 05:42:00,57.9,57.4,28.97,SSE,158,1.2,0.0,98,0.00,CLR,,0.00,WeatherDisplay:10.37,2013-07-14 10:42:00,
2013-07-14 05:44:00,57.9,57.4,28.97,SE,135,0.0,0.0,98,0.00,CLR,,0.00,WeatherDisplay:10.37,2013-07-14 10:44:00,
2013-07-14 05:45:00,57.9,57.4,28.97,SE,135,0.0,0.0,98,0.00,CLR,,0.00,WeatherDisplay:10.37,2013-07-14 10:45:00,
2013-07-14 05:47:00,57.9,57.4,28.97,SSE,158,2.3,2.3,98,0.00,CLR,,0.00,WeatherDisplay:10.37,2013-07-14 10:47:00,
2013-07-14 05:49:00,58.1,57.5,28.97,South,180,1.2,0.0,98,0.00,CLR,,0.00,WeatherDisplay:10.37,2013-07-14 10:49:00,
2013-07-14 05:50:00,58.1,57.5,28.97,South,180,1.2,0.0,98,0.00,CLR,,0.00,WeatherDisplay:10.37,2013-07-14 10:50:00,
2013-07-14 05:51:00,58.1,57.5,28.97,SSE,158,0.0,0.0,98,0.00,CLR,,0.00,WeatherDisplay:10.37,2013-07-14 10:51:00,
2013-07-14 05:52:00,58.1,57.5,28.97,SE,135,0.0,0.0,98,0.00,CLR,,0.00,WeatherDisplay:10.37,2013-07-14 10:52:00,
2013-07-14 05:54:00,58.3,57.7,28.97,ESE,112,1.2,1.2,98,0.00,CLR,,0.00,WeatherDisplay:10.37,2013-07-14 10:54:00,
2013-07-14 05:55:00,58.3,57.7,28.97,ESE,112,1.2,1.2,98,0.00,CLR,,0.00,WeatherDisplay:10.37,2013-07-14 10:55:00,
2013-07-14 05:56:00,58.3,57.7,28.97,SE,135,0.0,0.0,98,0.00,CLR,,0.00,WeatherDisplay:10.37,2013-07-14 10:56:00,
2013-07-14 05:57:00,58.5,57.9,28.97,SE,135,1.2,0.0,98,0.00,CLR,,0.00,WeatherDisplay:10.37,2013-07-14 10:57:00,
2013-07-14 05:59:00,58.5,57.9,28.97,SE,135,1.6,0.0,98,0.00,CLR,,0.00,WeatherDisplay:10.37,2013-07-14 10:59:00,
2013-07-14 06:00:00,58.5,57.9,28.97,SE,135,3.1,3.1,98,0.00,CLR,,0.00,WeatherDisplay:10.37,2013-07-14 11:00:00,
2013-07-14 06:01:00,59.0,58.4,28.97,SSE,158,3.5,3.5,98,0.00,CLR,,0.00,WeatherDisplay:10.37,2013-07-14 11:01:00,
2013-07-14 06:02:00,59.2,58.6,28.97,SSE,158,3.5,3.5,98,0.00,CLR,,0.00,WeatherDisplay:10.37,2013-07-14 11:02:00,
2013-07-14 06:04:00,59.5,59.0,28.97,SE,135,3.5,3.5,98,0.00,CLR,,0.00,WeatherDisplay:10.37,2013-07-14 11:04:00,
2013-07-14 06:05:00,59.9,59.3,28.97,SE,135,3.5,3.5,98,0.00,CLR,,0.00,WeatherDisplay:10.37,2013-07-14 11:05:00,
2013-07-14 06:06:00,60.1,59.5,28.97,SE,135,3.5,3.5,98,0.00,CLR,,0.00,WeatherDisplay:10.37,2013-07-14 11:06:00,
2013-07-14 06:07:00,60.3,59.7,28.97,ESE,112,3.5,3.5,98,0.00,CLR,,0.00,WeatherDisplay:10.37,2013-07-14 11:07:00,
2013-07-14 06:10:00,60.8,60.2,28.97,SE,135,2.3,0.0,98,0.00,CLR,,0.00,WeatherDisplay:10.37,2013-07-14 11:10:00,
2013-07-14 06:11:00,61.0,60.4,28.97,SE,135,1.2,1.2,98,0.00,CLR,,0.00,WeatherDisplay:10.37,2013-07-14 11:11:00,
2013-07-14 06:12:00,61.0,60.4,28.97,East,90,2.3,2.3,98,0.00,CLR,,0.00,WeatherDisplay:10.37,2013-07-14 11:12:00,
2013-07-14 06:15:00,61.3,60.8,28.97,SW,225,0.0,0.0,98,0.00,CLR,,0.00,WeatherDisplay:10.37,2013-07-14 11:15:00,
2013-07-14 06:16:00,61.5,61.0,28.97,SW,225,0.0,0.0,98,0.00,CLR,,0.00,WeatherDisplay:10.37,2013-07-14 11:16:00,
2013-07-14 06:18:00,61.7,61.1,28.97,SW,225,0.0,0.0,98,0.00,CLR,,0.00,WeatherDisplay:10.37,2013-07-14 11:18:00,
2013-07-14 06:20:00,61.9,61.3,28.97,WSW,248,0.0,0.0,98,0.00,CLR,,0.00,WeatherDisplay:10.37,2013-07-14 11:20:00,
2013-07-14 06:21:00,61.9,61.3,28.97,WSW,248,0.0,0.0,98,0.00,CLR,,0.00,WeatherDisplay:10.37,2013-07-14 11:21:00,
2013-07-14 06:23:00,62.1,61.5,28.97,West,270,0.0,0.0,98,0.00,CLR,,0.00,WeatherDisplay:10.37,2013-07-14 11:23:00,
2013-07-14 06:25:00,62.1,61.5,28.97,West,270,0.0,0.0,98,0.00,CLR,,0.00,WeatherDisplay:10.37,2013-07-14 11:25:00,
2013-07-14 06:26:00,62.2,61.7,28.97,West,270,0.0,0.0,98,0.00,CLR,,0.00,WeatherDisplay:10.37,2013-07-14 11:26:00,
2013-07-14 06:27:00,62.2,61.7,28.97,West,270,0.0,0.0,98,0.00,CLR,,0.00,WeatherDisplay:10.37,2013-07-14 11:27:00,
2013-07-14 06:28:00,62.4,61.8,28.97,WNW,292,0.0,0.0,98,0.00,CLR,,0.00,WeatherDisplay:10.37,2013-07-14 11:28:00,
2013-07-14 06:31:00,62.6,62.0,28.97,WNW,292,0.0,0.0,98,0.00,CLR,,0.00,WeatherDisplay:10.37,2013-07-14 11:31:00,
2013-07-14 06:32:00,62.8,62.2,28.97,WNW,292,0.0,0.0,98,0.00,CLR,,0.00,WeatherDisplay:10.37,2013-07-14 11:32:00,
2013-07-14 06:34:00,63.1,62.3,28.97,WNW,292,0.0,0.0,97,0.00,CLR,,0.00,WeatherDisplay:10.37,2013-07-14 11:34:00,
2013-07-14 06:36:00,63.3,62.5,28.97,WNW,292,0.0,0.0,97,0.00,CLR,,0.00,WeatherDisplay:10.37,2013-07-14 11:36:00,
2013-07-14 06:37:00,63.5,62.6,28.97,WNW,292,0.0,0.0,97,0.00,CLR,,0.00,WeatherDisplay:10.37,2013-07-14 11:37:00,
2013-07-14 06:39:00,63.9,63.0,28.97,WNW,292,0.0,0.0,97,0.00,CLR,,0.00,WeatherDisplay:10.37,2013-07-14 11:39:00,
2013-07-14 06:41:00,64.4,63.2,28.97,NW,315,0.0,0.0,96,0.00,CLR,,0.00,WeatherDisplay:10.37,2013-07-14 11:41:00,
2013-07-14 06:42:00,64.4,63.2,28.97,NW,315,0.0,0.0,96,0.00,CLR,,0.00,WeatherDisplay:10.37,2013-07-14 11:42:00,
2013-07-14 06:44:00,64.8,63.3,28.97,NW,315,0.0,0.0,95,0.00,CLR,,0.00,WeatherDisplay:10.37,2013-07-14 11:44:00,
2013-07-14 06:46:00,65.3,63.8,28.97,ESE,112,0.0,0.0,95,0.00,CLR,,0.00,WeatherDisplay:10.37,2013-07-14 11:46:00,
2013-07-14 06:47:00,65.3,63.8,28.97,ESE,112,0.0,0.0,95,0.00,CLR,,0.00,WeatherDisplay:10.37,2013-07-14 11:47:00,
2013-07-14 06:48:00,65.7,63.9,28.97,ESE,112,0.0,0.0,94,0.00,CLR,,0.00,WeatherDisplay:10.37,2013-07-14 11:48:00,
2013-07-14 06:49:00,65.7,63.6,28.97,ESE,112,0.0,0.0,93,0.00,CLR,,0.00,WeatherDisplay:10.37,2013-07-14 11:49:00,
2013-07-14 06:51:00,66.4,64.3,28.97,ESE,112,0.0,0.0,93,0.00,CLR,,0.00,WeatherDisplay:10.37,2013-07-14 11:51:00,
2013-07-14 06:52:00,66.4,64.3,28.97,ESE,112,0.0,0.0,93,0.00,CLR,,0.00,WeatherDisplay:10.37,2013-07-14 11:52:00,
2013-07-14 06:53:00,66.6,64.5,28.97,ESE,112,0.0,0.0,93,0.00,CLR,,0.00,WeatherDisplay:10.37,2013-07-14 11:53:00,
2013-07-14 06:55:00,66.7,64.7,28.97,ESE,112,0.0,0.0,93,0.00,CLR,,0.00,WeatherDisplay:10.37,2013-07-14 11:55:00,
2013-07-14 06:56:00,67.3,64.9,28.97,West,270,0.0,0.0,92,0.00,CLR,,0.00,WeatherDisplay:10.37,2013-07-14 11:56:00,
2013-07-14 06:57:00,67.5,65.1,28.97,West,270,0.0,0.0,92,0.00,CLR,,0.00,WeatherDisplay:10.37,2013-07-14 11:57:00,
2013-07-14 06:58:00,67.6,65.2,28.97,West,270,0.0,0.0,92,0.00,CLR,,0.00,WeatherDisplay:10.37,2013-07-14 11:58:00,
2013-07-14 07:00:00,68.2,65.5,28.97,West,270,0.0,0.0,91,0.00,CLR,,0.00,WeatherDisplay:10.37,2013-07-14 12:00:00,
2013-07-14 07:02:00,68.9,66.2,28.97,West,270,0.0,0.0,91,0.00,CLR,,0.00,WeatherDisplay:10.37,2013-07-14 12:02:00,
2013-07-14 07:03:00,69.1,66.0,28.97,West,270,0.0,0.0,90,0.00,CLR,,0.00,WeatherDisplay:10.37,2013-07-14 12:03:00,
2013-07-14 07:04:00,69.3,66.2,28.97,NW,315,0.0,0.0,90,0.00,CLR,,0.00,WeatherDisplay:10.37,2013-07-14 12:04:00,
2013-07-14 07:05:00,69.4,66.4,28.97,NW,315,0.0,0.0,90,0.00,CLR,,0.00,WeatherDisplay:10.37,2013-07-14 12:05:00,
2013-07-14 07:07:00,69.6,66.2,28.97,NW,315,0.0,0.0,89,0.00,CLR,,0.00,WeatherDisplay:10.37,2013-07-14 12:07:00,
2013-07-14 07:08:00,69.8,66.1,28.97,NW,315,0.0,0.0,88,0.00,CLR,,0.00,WeatherDisplay:10.37,2013-07-14 12:08:00,
2013-07-14 07:09:00,70.0,65.9,28.94,NW,315,0.0,0.0,87,0.00,CLR,,0.00,WeatherDisplay:10.37,2013-07-14 12:09:00,
2013-07-14 07:10:00,70.2,66.1,28.94,NW,315,0.0,0.0,87,0.00,CLR,,0.00,WeatherDisplay:10.37,2013-07-14 12:10:00,
2013-07-14 07:12:00,70.5,66.1,28.94,NW,315,0.0,0.0,86,0.00,CLR,,0.00,WeatherDisplay:10.37,2013-07-14 12:12:00,
2013-07-14 07:13:00,70.7,66.0,28.94,NW,315,0.0,0.0,85,0.00,CLR,,0.00,WeatherDisplay:10.37,2013-07-14 12:13:00,
2013-07-14 07:15:00,71.2,66.2,28.94,NW,315,0.0,0.0,84,0.00,CLR,,0.00,WeatherDisplay:10.37,2013-07-14 12:15:00,
2013-07-14 07:16:00,71.4,66.0,28.94,NW,315,0.0,0.0,83,0.00,CLR,,0.00,WeatherDisplay:10.37,2013-07-14 12:16:00,
2013-07-14 07:17:00,72.0,65.8,28.94,NW,315,0.0,0.0,81,0.00,CLR,,0.00,WeatherDisplay:10.37,2013-07-14 12:17:00,
2013-07-14 07:18:00,72.0,65.8,28.94,NW,315,0.0,0.0,81,0.00,CLR,,0.00,WeatherDisplay:10.37,2013-07-14 12:18:00,
2013-07-14 07:20:00,72.3,65.1,28.94,East,90,0.0,0.0,78,0.00,CLR,,0.00,WeatherDisplay:10.37,2013-07-14 12:20:00,
2013-07-14 07:21:00,72.3,65.8,28.94,ESE,112,1.2,0.0,80,0.00,CLR,,0.00,WeatherDisplay:10.37,2013-07-14 12:21:00,
2013-07-14 07:22:00,72.1,65.6,28.94,ESE,112,1.2,0.0,80,0.00,CLR,,0.00,WeatherDisplay:10.37,2013-07-14 12:22:00,
2013-07-14 07:23:00,72.3,65.1,28.94,ESE,112,0.0,0.0,78,0.00,CLR,,0.00,WeatherDisplay:10.37,2013-07-14 12:23:00,
2013-07-14 07:24:00,72.0,63.2,28.94,East,90,0.0,0.0,74,0.00,CLR,,0.00,WeatherDisplay:10.37,2013-07-14 12:24:00,
2013-07-14 07:25:00,72.0,62.8,28.94,SE,135,2.2,0.0,73,0.00,CLR,,0.00,WeatherDisplay:10.37,2013-07-14 12:25:00,
2013-07-14 07:26:00,72.0,62.4,28.94,SE,135,2.3,2.3,72,0.00,CLR,,0.00,WeatherDisplay:10.37,2013-07-14 12:26:00,
2013-07-14 07:27:00,72.1,63.4,28.94,East,90,0.0,0.0,74,0.00,CLR,,0.00,WeatherDisplay:10.37,2013-07-14 12:27:00,
2013-07-14 07:29:00,72.0,63.2,28.94,East,90,0.0,0.0,74,0.00,CLR,,0.00,WeatherDisplay:10.37,2013-07-14 12:29:00,
2013-07-14 07:30:00,72.3,63.2,28.94,SE,135,1.2,0.0,73,0.00,CLR,,0.00,WeatherDisplay:10.37,2013-07-14 12:30:00,
2013-07-14 07:31:00,72.3,63.2,28.94,SE,135,1.2,0.0,73,0.00,CLR,,0.00,WeatherDisplay:10.37,2013-07-14 12:31:00,
2013-07-14 07:33:00,72.5,63.0,28.94,East,90,0.0,0.0,72,0.00,CLR,,0.00,WeatherDisplay:10.37,2013-07-14 12:33:00,
2013-07-14 07:34:00,72.9,62.5,28.94,East,90,1.2,0.0,70,0.00,CLR,,0.00,WeatherDisplay:10.37,2013-07-14 12:34:00,
2013-07-14 07:35:00,73.2,63.2,28.94,ENE,68,0.0,0.0,71,0.00,CLR,,0.00,WeatherDisplay:10.37,2013-07-14 12:35:00,
2013-07-14 07:36:00,73.2,63.2,28.94,ESE,112,0.0,0.0,71,0.00,CLR,,0.00,WeatherDisplay:10.37,2013-07-14 12:36:00,
2013-07-14 07:38:00,73.4,62.6,28.94,ENE,68,1.2,0.0,69,0.00,CLR,,0.00,WeatherDisplay:10.37,2013-07-14 12:38:00,
2013-07-14 07:39:00,73.8,63.0,28.97,ENE,68,1.2,0.0,69,0.00,CLR,,0.00,WeatherDisplay:10.37,2013-07-14 12:39:00,
2013-07-14 07:41:00,74.3,63.5,28.97,ENE,68,0.0,0.0,69,0.00,CLR,,0.00,WeatherDisplay:10.37,2013-07-14 12:41:00,
2013-07-14 07:43:00,74.5,63.6,28.97,ENE,68,0.0,0.0,69,0.00,CLR,,0.00,WeatherDisplay:10.37,2013-07-14 12:43:00,
2013-07-14 07:44:00,74.5,63.6,28.97,ENE,68,0.0,0.0,69,0.00,CLR,,0.00,WeatherDisplay:10.37,2013-07-14 12:44:00,
2013-07-14 07:46:00,75.0,63.7,28.97,ENE,68,0.0,0.0,68,0.00,CLR,,0.00,WeatherDisplay:10.37,2013-07-14 12:46:00,
2013-07-14 07:47:00,75.0,63.7,28.97,ENE,68,0.0,0.0,68,0.00,CLR,,0.00,WeatherDisplay:10.37,2013-07-14 12:47:00,
2013-07-14 07:48:00,75.6,63.8,28.97,ENE,68,0.0,0.0,67,0.00,CLR,,0.00,WeatherDisplay:10.37,2013-07-14 12:48:00,
2013-07-14 07:49:00,75.6,63.8,28.97,ENE,68,0.0,0.0,67,0.00,CLR,,0.00,WeatherDisplay:10.37,2013-07-14 12:49:00,
2013-07-14 07:50:00,75.9,64.2,28.97,ENE,68,0.0,0.0,67,0.00,CLR,,0.00,WeatherDisplay:10.37,2013-07-14 12:50:00,
2013-07-14 07:51:00,76.3,64.5,28.97,NE,45,0.0,0.0,67,0.00,CLR,,0.00,WeatherDisplay:10.37,2013-07-14 12:51:00,
2013-07-14 07:52:00,76.1,63.9,28.97,NE,45,0.0,0.0,66,0.00,CLR,,0.00,WeatherDisplay:10.37,2013-07-14 12:52:00,
2013-07-14 07:53:00,76.3,64.1,28.97,NE,45,0.0,0.0,66,0.00,CLR,,0.00,WeatherDisplay:10.37,2013-07-14 12:53:00,
2013-07-14 07:54:00,76.6,64.4,28.97,NE,45,0.0,0.0,66,0.00,CLR,,0.00,WeatherDisplay:10.37,2013-07-14 12:54:00,
2013-07-14 07:55:00,76.6,64.4,28.97,NE,45,0.0,0.0,66,0.00,CLR,,0.00,WeatherDisplay:10.37,2013-07-14 12:55:00,
2013-07-14 07:56:00,77.0,63.9,28.97,ENE,68,0.0,0.0,64,0.00,CLR,,0.00,WeatherDisplay:10.37,2013-07-14 12:56:00,
2013-07-14 07:57:00,77.0,63.9,28.97,ENE,68,0.0,0.0,64,0.00,CLR,,0.00,WeatherDisplay:10.37,2013-07-14 12:57:00,
2013-07-14 07:58:00,77.2,64.5,28.97,NE,45,0.0,0.0,65,0.00,CLR,,0.00,WeatherDisplay:10.37,2013-07-14 12:58:00,
2013-07-14 08:00:00,77.5,63.9,28.97,East,90,0.0,0.0,63,0.00,CLR,,0.00,WeatherDisplay:10.37,2013-07-14 13:00:00,
2013-07-14 08:02:00,77.4,63.3,28.97,East,90,0.0,0.0,62,0.00,CLR,,0.00,WeatherDisplay:10.37,2013-07-14 13:02:00,
2013-07-14 08:04:00,77.9,62.9,28.97,East,90,0.0,0.0,60,0.00,CLR,,0.00,WeatherDisplay:10.37,2013-07-14 13:04:00,
2013-07-14 08:05:00,78.1,63.5,28.97,East,90,0.0,0.0,61,0.00,CLR,,0.00,WeatherDisplay:10.37,2013-07-14 13:05:00,
2013-07-14 08:07:00,77.9,62.9,28.97,East,90,0.0,0.0,60,0.00,CLR,,0.00,WeatherDisplay:10.37,2013-07-14 13:07:00,
2013-07-14 08:08:00,78.1,63.1,28.97,SE,135,0.0,0.0,60,0.00,CLR,,0.00,WeatherDisplay:10.37,2013-07-14 13:08:00,
2013-07-14 08:09:00,78.3,63.2,28.97,East,90,0.0,0.0,60,0.00,CLR,,0.00,WeatherDisplay:10.37,2013-07-14 13:09:00,
2013-07-14 08:10:00,78.3,62.8,28.97,East,90,0.0,0.0,59,0.00,CLR,,0.00,WeatherDisplay:10.37,2013-07-14 13:10:00,
2013-07-14 08:11:00,78.3,62.8,28.97,East,90,0.0,0.0,59,0.00,CLR,,0.00,WeatherDisplay:10.37,2013-07-14 13:11:00,
2013-07-14 08:12:00,78.1,62.1,28.97,SE,135,0.0,0.0,58,0.00,CLR,,0.00,WeatherDisplay:10.37,2013-07-14 13:12:00,
2013-07-14 08:13:00,78.3,63.2,28.97,SE,135,0.0,0.0,60,0.00,CLR,,0.00,WeatherDisplay:10.37,2013-07-14 13:13:00,
2013-07-14 08:14:00,78.6,63.6,28.97,SW,225,0.0,0.0,60,0.00,CLR,,0.00,WeatherDisplay:10.37,2013-07-14 13:14:00,
2013-07-14 08:16:00,79.3,63.8,28.97,ENE,68,0.0,0.0,59,0.00,CLR,,0.00,WeatherDisplay:10.37,2013-07-14 13:16:00,
2013-07-14 08:17:00,79.5,63.4,28.97,SE,135,0.0,0.0,58,0.00,CLR,,0.00,WeatherDisplay:10.37,2013-07-14 13:17:00,
2013-07-14 08:18:00,79.3,62.8,28.97,ESE,112,1.2,0.0,57,0.00,CLR,,0.00,WeatherDisplay:10.37,2013-07-14 13:18:00,
2013-07-14 08:19:00,79.5,62.9,28.97,SSE,158,1.2,0.0,57,0.00,CLR,,0.00,WeatherDisplay:10.37,2013-07-14 13:19:00,
2013-07-14 08:21:00,78.8,61.8,28.97,SSE,158,2.3,2.3,56,0.00,CLR,,0.00,WeatherDisplay:10.37,2013-07-14 13:21:00,
2013-07-14 08:22:00,78.6,62.1,28.97,South,180,2.3,2.3,57,0.00,CLR,,0.00,WeatherDisplay:10.37,2013-07-14 13:22:00,
2013-07-14 08:23:00,79.0,61.4,28.97,SSW,202,1.2,0.0,55,0.00,CLR,,0.00,WeatherDisplay:10.37,2013-07-14 13:23:00,
2013-07-14 08:24:00,79.0,61.4,28.97,SE,135,3.1,3.1,55,0.00,CLR,,0.00,WeatherDisplay:10.37,2013-07-14 13:24:00,
2013-07-14 08:26:00,79.2,61.1,29.00,East,90,3.1,3.1,54,0.00,CLR,,0.00,WeatherDisplay:10.37,2013-07-14 13:26:00,
2013-07-14 08:27:00,79.0,60.9,29.00,SE,135,3.5,3.5,54,0.00,CLR,,0.00,WeatherDisplay:10.37,2013-07-14 13:27:00,
2013-07-14 08:29:00,78.8,61.3,29.00,ENE,68,3.5,3.5,55,0.00,CLR,,0.00,WeatherDisplay:10.37,2013-07-14 13:29:00,
2013-07-14 08:31:00,78.6,61.1,29.00,SE,135,3.5,3.5,55,0.00,CLR,,0.00,WeatherDisplay:10.37,2013-07-14 13:31:00,
2013-07-14 08:32:00,79.2,61.6,29.00,SSE,158,3.5,3.5,55,0.00,CLR,,0.00,WeatherDisplay:10.37,2013-07-14 13:32:00,
2013-07-14 08:34:00,79.5,62.4,29.00,SSW,202,0.0,0.0,56,0.00,CLR,,0.00,WeatherDisplay:10.37,2013-07-14 13:34:00,
2013-07-14 08:35:00,79.7,62.6,29.00,SSE,158,2.9,0.0,56,0.00,CLR,,0.00,WeatherDisplay:10.37,2013-07-14 13:35:00,
2013-07-14 08:36:00,79.3,61.2,29.00,SE,135,4.9,4.9,54,0.00,CLR,,0.00,WeatherDisplay:10.37,2013-07-14 13:36:00,
2013-07-14 08:38:00,78.8,61.3,29.00,SE,135,4.6,4.6,55,0.00,CLR,,0.00,WeatherDisplay:10.37,2013-07-14 13:38:00,
2013-07-14 08:39:00,78.8,60.2,29.00,SSE,158,5.4,5.4,53,0.00,CLR,,0.00,WeatherDisplay:10.37,2013-07-14 13:39:00,
2013-07-14 08:40:00,78.6,61.1,29.00,SW,225,5.8,5.8,55,0.00,CLR,,0.00,WeatherDisplay:10.37,2013-07-14 13:40:00,
2013-07-14 08:41:00,78.8,61.3,29.00,ESE,112,3.5,3.5,55,0.00,CLR,,0.00,WeatherDisplay:10.37,2013-07-14 13:41:00,
2013-07-14 08:42:00,79.0,60.9,29.00,South,180,3.5,3.5,54,0.00,CLR,,0.00,WeatherDisplay:10.37,2013-07-14 13:42:00,
2013-07-14 08:43:00,79.5,61.4,29.00,SSE,158,2.6,2.6,54,0.00,CLR,,0.00,WeatherDisplay:10.37,2013-07-14 13:43:00,
2013-07-14 08:44:00,79.0,59.3,29.00,SSW,202,5.6,5.6,51,0.00,CLR,,0.00,WeatherDisplay:10.37,2013-07-14 13:44:00,
2013-07-14 08:46:00,79.0,59.3,29.00,SSW,202,6.0,6.0,51,0.00,CLR,,0.00,WeatherDisplay:10.37,2013-07-14 13:46:00,
2013-07-14 08:47:00,79.2,60.6,29.00,ENE,68,5.8,5.8,53,0.00,CLR,,0.00,WeatherDisplay:10.37,2013-07-14 13:47:00,
2013-07-14 08:49:00,79.7,61.6,29.00,ESE,112,4.9,4.9,54,0.00,CLR,,0.00,WeatherDisplay:10.37,2013-07-14 13:49:00,
2013-07-14 08:51:00,79.7,61.1,29.00,South,180,4.6,4.6,53,0.00,CLR,,0.00,WeatherDisplay:10.37,2013-07-14 13:51:00,
2013-07-14 08:53:00,79.7,60.5,29.00,SE,135,4.6,4.6,52,0.00,CLR,,0.00,WeatherDisplay:10.37,2013-07-14 13:53:00,
2013-07-14 08:54:00,79.2,59.5,29.00,SSE,158,5.8,5.8,51,0.00,CLR,,0.00,WeatherDisplay:10.37,2013-07-14 13:54:00,
2013-07-14 08:56:00,79.2,60.0,29.00,SSE,158,4.7,4.7,52,0.00,CLR,,0.00,WeatherDisplay:10.37,2013-07-14 13:56:00,
2013-07-14 08:57:00,79.3,60.2,29.00,SSE,158,4.6,4.6,52,0.00,CLR,,0.00,WeatherDisplay:10.37,2013-07-14 13:57:00,
2013-07-14 08:58:00,79.0,59.9,29.00,SE,135,7.1,7.1,52,0.00,CLR,,0.00,WeatherDisplay:10.37,2013-07-14 13:58:00,
2013-07-14 08:59:00,79.2,60.6,29.00,SE,135,6.9,6.9,53,0.00,CLR,,0.00,WeatherDisplay:10.37,2013-07-14 13:59:00,
2013-07-14 09:01:00,79.0,60.9,29.00,West,270,4.6,4.6,54,0.00,CLR,,0.00,WeatherDisplay:10.37,2013-07-14 14:01:00,
2013-07-14 09:02:00,79.3,61.8,29.00,South,180,4.6,4.6,55,0.00,CLR,,0.00,WeatherDisplay:10.37,2013-07-14 14:02:00,
2013-07-14 09:04:00,80.4,62.8,29.00,SSW,202,2.9,0.0,55,0.00,CLR,,0.00,WeatherDisplay:10.37,2013-07-14 14:04:00,
2013-07-14 09:05:00,81.3,63.1,29.00,SSE,158,3.5,3.5,54,0.00,CLR,,0.00,WeatherDisplay:10.37,2013-07-14 14:05:00,
2013-07-14 09:07:00,81.3,62.0,29.00,SSE,158,2.3,2.3,52,0.00,CLR,,0.00,WeatherDisplay:10.37,2013-07-14 14:07:00,
2013-07-14 09:09:00,80.6,61.3,29.00,SSW,202,6.9,6.9,52,0.00,CLR,,0.00,WeatherDisplay:10.37,2013-07-14 14:09:00,
2013-07-14 09:10:00,80.8,62.1,29.00,SSE,158,5.8,5.8,53,0.00,CLR,,0.00,WeatherDisplay:10.37,2013-07-14 14:10:00,
2013-07-14 09:12:00,81.0,62.7,29.00,SW,225,5.8,5.8,54,0.00,CLR,,0.00,WeatherDisplay:10.37,2013-07-14 14:12:00,
2013-07-14 09:15:00,82.0,62.7,29.00,SSE,158,6.4,6.4,52,0.00,CLR,,0.00,WeatherDisplay:10.37,2013-07-14 14:15:00,
2013-07-14 09:16:00,81.5,61.6,29.00,SSE,158,6.9,6.9,51,0.00,CLR,,0.00,WeatherDisplay:10.37,2013-07-14 14:16:00,
2013-07-14 09:17:00,81.0,61.7,29.00,SSW,202,6.9,6.9,52,0.00,CLR,,0.00,WeatherDisplay:10.37,2013-07-14 14:17:00,
2013-07-14 09:20:00,82.0,63.2,29.00,WSW,248,4.6,4.6,53,0.00,CLR,,0.00,WeatherDisplay:10.37,2013-07-14 14:20:00,
2013-07-14 09:21:00,82.4,63.0,29.00,WSW,248,2.3,2.3,52,0.00,CLR,,0.00,WeatherDisplay:10.37,2013-07-14 14:21:00,
2013-07-14 09:22:00,82.8,63.3,29.00,SSE,158,3.5,3.5,52,0.00,CLR,,0.00,WeatherDisplay:10.37,2013-07-14 14:22:00,
2013-07-14 09:25:00,81.5,61.6,29.00,NNE,22,8.1,8.1,51,0.00,CLR,,0.00,WeatherDisplay:10.37,2013-07-14 14:25:00,
2013-07-14 09:26:00,81.5,61.6,29.00,SSE,158,5.8,5.8,51,0.00,CLR,,0.00,WeatherDisplay:10.37,2013-07-14 14:26:00,
2013-07-14 09:27:00,81.7,62.9,29.00,SSE,158,4.6,4.6,53,0.00,CLR,,0.00,WeatherDisplay:10.37,2013-07-14 14:27:00,
2013-07-14 09:28:00,82.0,62.7,29.00,SE,135,4.6,4.6,52,0.00,CLR,,0.00,WeatherDisplay:10.37,2013-07-14 14:28:00,
2013-07-14 09:30:00,81.1,61.8,29.00,SSE,158,9.2,9.2,52,0.00,CLR,,0.00,WeatherDisplay:10.37,2013-07-14 14:30:00,
2013-07-14 09:31:00,81.1,61.8,29.00,SSE,158,9.2,9.2,52,0.00,CLR,,0.00,WeatherDisplay:10.37,2013-07-14 14:31:00,
2013-07-14 09:32:00,81.0,61.7,29.00,SSE,158,8.1,8.1,52,0.00,CLR,,0.00,WeatherDisplay:10.37,2013-07-14 14:32:00,
2013-07-14 09:33:00,81.0,61.7,29.00,SSE,158,10.2,10.2,52,0.00,CLR,,0.00,WeatherDisplay:10.37,2013-07-14 14:33:00,
2013-07-14 09:36:00,81.3,62.6,29.00,SSW,202,8.1,8.1,53,0.00,CLR,,0.00,WeatherDisplay:10.37,2013-07-14 14:36:00,
2013-07-14 09:38:00,81.7,62.3,29.00,South,180,5.8,5.8,52,0.00,CLR,,0.00,WeatherDisplay:10.37,2013-07-14 14:38:00,
2013-07-14 09:41:00,81.5,62.2,29.00,SSW,202,4.6,5.6,52,0.00,CLR,,0.00,WeatherDisplay:10.37,2013-07-14 14:41:00,
2013-07-14 09:43:00,82.2,63.9,29.00,SSE,158,3.5,3.5,54,0.00,CLR,,0.00,WeatherDisplay:10.37,2013-07-14 14:43:00,
2013-07-14 09:44:00,82.8,63.3,29.00,SSE,158,6.9,6.9,52,0.00,CLR,,0.00,WeatherDisplay:10.37,2013-07-14 14:44:00,
2013-07-14 09:46:00,82.6,63.7,29.00,WSW,248,5.8,5.8,53,0.00,CLR,,0.00,WeatherDisplay:10.37,2013-07-14 14:46:00,
2013-07-14 09:47:00,82.8,63.9,29.00,SSE,158,5.8,5.8,53,0.00,CLR,,0.00,WeatherDisplay:10.37,2013-07-14 14:47:00,
2013-07-14 09:48:00,82.6,62.1,29.00,South,180,4.6,5.4,50,0.00,CLR,,0.00,WeatherDisplay:10.37,2013-07-14 14:48:00,
2013-07-14 09:49:00,82.4,61.9,29.00,SSE,158,9.7,9.7,50,0.00,CLR,,0.00,WeatherDisplay:10.37,2013-07-14 14:49:00,
2013-07-14 09:51:00,81.9,62.5,29.00,SE,135,5.8,7.4,52,0.00,CLR,,0.00,WeatherDisplay:10.37,2013-07-14 14:51:00,
2013-07-14 09:52:00,82.0,62.7,29.00,SSW,202,5.8,5.8,52,0.00,CLR,,0.00,WeatherDisplay:10.37,2013-07-14 14:52:00,
2013-07-14 09:53:00,82.4,63.0,29.00,SW,225,8.1,8.1,52,0.00,CLR,,0.00,WeatherDisplay:10.37,2013-07-14 14:53:00,
2013-07-14 09:54:00,82.4,63.0,29.00,South,180,9.0,9.0,52,0.00,CLR,,0.00,WeatherDisplay:10.37,2013-07-14 14:54:00,
2013-07-14 09:56:00,82.2,62.8,28.97,SSE,158,6.0,6.0,52,0.00,CLR,,0.00,WeatherDisplay:10.37,2013-07-14 14:56:00,
2013-07-14 09:57:00,82.2,62.8,28.97,SSE,158,12.7,12.7,52,0.00,CLR,,0.00,WeatherDisplay:10.37,2013-07-14 14:57:00,
2013-07-14 09:58:00,82.2,62.8,28.97,SSE,158,12.7,12.7,52,0.00,CLR,,0.00,WeatherDisplay:10.37,2013-07-14 14:58:00,
2013-07-14 09:59:00,82.6,62.6,28.97,South,180,6.2,6.2,51,0.00,CLR,,0.00,WeatherDisplay:10.37,2013-07-14 14:59:00,
2013-07-14 10:01:00,82.6,63.2,28.97,SSW,202,8.1,8.1,52,0.00,CLR,,0.00,WeatherDisplay:10.37,2013-07-14 15:01:00,
2013-07-14 10:02:00,82.6,63.2,28.97,SSW,202,13.8,13.8,52,0.00,CLR,,0.00,WeatherDisplay:10.37,2013-07-14 15:02:00,
2013-07-14 10:03:00,81.9,62.0,28.97,SSW,202,13.8,13.8,51,0.00,CLR,,0.00,WeatherDisplay:10.37,2013-07-14 15:03:00,
2013-07-14 10:04:00,81.9,62.0,28.97,South,180,4.9,6.4,51,0.00,CLR,,0.00,WeatherDisplay:10.37,2013-07-14 15:04:00,
2013-07-14 10:06:00,81.9,63.1,28.97,South,180,9.2,9.2,53,0.00,CLR,,0.00,WeatherDisplay:10.37,2013-07-14 15:06:00,
2013-07-14 10:07:00,82.8,64.4,28.97,SSE,158,8.5,8.5,54,0.00,CLR,,0.00,WeatherDisplay:10.37,2013-07-14 15:07:00,
2013-07-14 10:08:00,82.6,63.2,28.97,SSE,158,8.1,8.1,52,0.00,CLR,,0.00,WeatherDisplay:10.37,2013-07-14 15:08:00,
2013-07-14 10:09:00,82.8,63.3,29.00,SSE,158,5.8,5.8,52,0.00,CLR,,0.00,WeatherDisplay:10.37,2013-07-14 15:09:00,
2013-07-14 10:11:00,82.4,63.0,29.00,WSW,248,9.2,9.2,52,0.00,CLR,,0.00,WeatherDisplay:10.37,2013-07-14 15:11:00,
2013-07-14 10:12:00,82.9,63.5,29.00,SSE,158,9.2,9.2,52,0.00,CLR,,0.00,WeatherDisplay:10.37,2013-07-14 15:12:00,
2013-07-14 10:14:00,83.7,64.2,29.00,SSW,202,9.2,9.2,52,0.00,CLR,,0.00,WeatherDisplay:10.37,2013-07-14 15:14:00,
2013-07-14 10:15:00,84.0,63.9,29.00,SSW,202,9.2,9.2,51,0.00,CLR,,0.00,WeatherDisplay:10.37,2013-07-14 15:15:00,
2013-07-14 10:16:00,83.8,63.2,29.00,South,180,11.8,11.8,50,0.00,CLR,,0.00,WeatherDisplay:10.37,2013-07-14 15:16:00,
2013-07-14 10:17:00,83.8,63.2,29.00,SE,135,13.8,13.8,50,0.00,CLR,,0.00,WeatherDisplay:10.37,2013-07-14 15:17:00,
2013-07-14 10:19:00,82.9,64.0,29.00,SSE,158,9.2,9.2,53,0.00,CLR,,0.00,WeatherDisplay:10.37,2013-07-14 15:19:00,
2013-07-14 10:20:00,82.9,64.0,29.00,South,180,6.0,14.0,53,0.00,CLR,,0.00,WeatherDisplay:10.37,2013-07-14 15:20:00,
2013-07-14 10:21:00,83.5,63.4,29.00,SE,135,8.1,8.1,51,0.00,CLR,,0.00,WeatherDisplay:10.37,2013-07-14 15:21:00,
2013-07-14 10:22:00,83.7,64.2,29.00,SSE,158,6.9,6.9,52,0.00,CLR,,0.00,WeatherDisplay:10.37,2013-07-14 15:22:00,
2013-07-14 10:24:00,84.6,65.0,29.00,WSW,248,4.6,4.6,52,0.00,CLR,,0.00,WeatherDisplay:10.37,2013-07-14 15:24:00,
2013-07-14 10:25:00,84.9,64.8,29.00,SSE,158,4.6,4.6,51,0.00,CLR,,0.00,WeatherDisplay:10.37,2013-07-14 15:25:00,
2013-07-14 10:27:00,84.7,64.0,29.00,SE,135,8.1,8.1,50,0.00,CLR,,0.00,WeatherDisplay:10.37,2013-07-14 15:27:00,
2013-07-14 10:29:00,85.6,64.9,29.00,SSE,158,5.6,5.6,50,0.00,CLR,,0.00,WeatherDisplay:10.37,2013-07-14 15:29:00,
2013-07-14 10:30:00,85.5,63.5,29.00,SSE,158,8.1,8.1,48,0.00,CLR,,0.00,WeatherDisplay:10.37,2013-07-14 15:30:00,
2013-07-14 10:32:00,85.3,64.5,29.00,West,270,5.8,5.8,50,0.00,CLR,,0.00,WeatherDisplay:10.37,2013-07-14 15:32:00,
2013-07-14 10:33:00,86.2,65.4,29.00,SW,225,2.6,2.6,50,0.00,CLR,,0.00,WeatherDisplay:10.37,2013-07-14 15:33:00,
2013-07-14 10:35:00,85.8,63.9,29.00,ESE,112,5.8,5.8,48,0.00,CLR,,0.00,WeatherDisplay:10.37,2013-07-14 15:35:00,
2013-07-14 10:37:00,86.0,64.0,29.00,South,180,4.6,4.6,48,0.00,CLR,,0.00,WeatherDisplay:10.37,2013-07-14 15:37:00,
2013-07-14 10:38:00,86.4,64.4,29.00,ESE,112,6.9,6.9,48,0.00,CLR,,0.00,WeatherDisplay:10.37,2013-07-14 15:38:00,
2013-07-14 10:40:00,85.3,62.8,29.00,SE,135,9.2,9.2,47,0.00,CLR,,0.00,WeatherDisplay:10.37,2013-07-14 15:40:00,
2013-07-14 10:42:00,84.9,63.0,29.00,SSE,158,6.2,6.2,48,0.00,CLR,,0.00,WeatherDisplay:10.37,2013-07-14 15:42:00,
2013-07-14 10:43:00,84.9,63.0,29.00,WSW,248,8.1,8.1,48,0.00,CLR,,0.00,WeatherDisplay:10.37,2013-07-14 15:43:00,
2013-07-14 10:45:00,85.8,63.3,29.00,SSE,158,5.8,5.8,47,0.00,CLR,,0.00,WeatherDisplay:10.37,2013-07-14 15:45:00,
2013-07-14 10:46:00,85.8,64.5,29.00,SE,135,5.8,5.8,49,0.00,CLR,,0.00,WeatherDisplay:10.37,2013-07-14 15:46:00,
2013-07-14 10:47:00,86.0,64.0,29.00,ESE,112,1.2,1.2,48,0.00,CLR,,0.00,WeatherDisplay:10.37,2013-07-14 15:47:00,
2013-07-14 10:48:00,86.0,64.0,29.00,ESE,112,1.2,1.2,48,0.00,CLR,,0.00,WeatherDisplay:10.37,2013-07-14 15:48:00,
2013-07-14 10:50:00,86.4,64.4,29.00,SSW,202,3.5,3.5,48,0.00,CLR,,0.00,WeatherDisplay:10.37,2013-07-14 15:50:00,
2013-07-14 10:51:00,86.7,64.7,29.00,WSW,248,3.5,3.5,48,0.00,CLR,,0.00,WeatherDisplay:10.37,2013-07-14 15:51:00,
2013-07-14 10:53:00,87.3,65.2,29.00,SSE,158,2.3,2.3,48,0.00,CLR,,0.00,WeatherDisplay:10.37,2013-07-14 15:53:00,
2013-07-14 10:56:00,86.9,64.8,29.00,North,0,2.3,0.0,48,0.00,CLR,,0.00,WeatherDisplay:10.37,2013-07-14 15:56:00,
2013-07-14 10:58:00,84.9,61.8,29.00,SSE,158,8.1,8.1,46,0.00,CLR,,0.00,WeatherDisplay:10.37,2013-07-14 15:58:00,
2013-07-14 11:01:00,83.7,61.3,29.00,SSW,202,8.1,8.1,47,0.00,CLR,,0.00,WeatherDisplay:10.37,2013-07-14 16:01:00,
2013-07-14 11:03:00,84.4,61.3,29.00,South,180,4.9,4.9,46,0.00,CLR,,0.00,WeatherDisplay:10.37,2013-07-14 16:03:00,
2013-07-14 11:04:00,84.7,62.3,29.00,South,180,5.8,5.8,47,0.00,CLR,,0.00,WeatherDisplay:10.37,2013-07-14 16:04:00,
2013-07-14 11:06:00,83.8,60.8,29.00,South,180,9.2,9.2,46,0.00,CLR,,0.00,WeatherDisplay:10.37,2013-07-14 16:06:00,
2013-07-14 11:08:00,83.7,61.3,29.00,South,180,4.6,4.6,47,0.00,CLR,,0.00,WeatherDisplay:10.37,2013-07-14 16:08:00,
2013-07-14 11:09:00,84.2,62.4,29.00,SSE,158,3.5,3.5,48,0.00,CLR,,0.00,WeatherDisplay:10.37,2013-07-14 16:09:00,
2013-07-14 11:11:00,86.0,62.8,29.00,West,270,3.5,3.5,46,0.00,CLR,,0.00,WeatherDisplay:10.37,2013-07-14 16:11:00,
2013-07-14 11:12:00,86.0,62.8,29.00,SW,225,2.6,2.6,46,0.00,CLR,,0.00,WeatherDisplay:10.37,2013-07-14 16:12:00,
2013-07-14 11:13:00,86.4,63.1,29.00,NNW,338,2.3,2.3,46,0.00,CLR,,0.00,WeatherDisplay:10.37,2013-07-14 16:13:00,
2013-07-14 11:14:00,86.4,63.1,29.00,West,270,3.5,3.5,46,0.00,CLR,,0.00,WeatherDisplay:10.37,2013-07-14 16:14:00,
2013-07-14 11:16:00,85.5,61.1,29.00,SSE,158,6.9,6.9,44,0.00,CLR,,0.00,WeatherDisplay:10.37,2013-07-14 16:16:00,
2013-07-14 11:17:00,85.3,60.9,29.00,SSW,202,10.0,10.0,44,0.00,CLR,,0.00,WeatherDisplay:10.37,2013-07-14 16:17:00,
2013-07-14 11:18:00,85.6,61.9,29.00,SE,135,10.4,10.4,45,0.00,CLR,,0.00,WeatherDisplay:10.37,2013-07-14 16:18:00,
2013-07-14 11:19:00,86.2,61.7,29.00,SSE,158,10.4,10.4,44,0.00,CLR,,0.00,WeatherDisplay:10.37,2013-07-14 16:19:00,
2013-07-14 11:21:00,86.0,60.9,29.00,SSW,202,9.2,9.2,43,0.00,CLR,,0.00,WeatherDisplay:10.37,2013-07-14 16:21:00,
2013-07-14 11:22:00,86.0,60.9,29.00,SSW,202,9.2,9.2,43,0.00,CLR,,0.00,WeatherDisplay:10.37,2013-07-14 16:22:00,
2013-07-14 11:24:00,86.5,62.7,29.00,North,0,3.5,3.5,45,0.00,CLR,,0.00,WeatherDisplay:10.37,2013-07-14 16:24:00,
2013-07-14 11:26:00,87.1,61.9,29.00,West,270,5.8,5.8,43,0.00,CLR,,0.00,WeatherDisplay:10.37,2013-07-14 16:26:00,
2013-07-14 11:27:00,87.1,61.9,29.00,SE,135,5.8,5.8,43,0.00,CLR,,0.00,WeatherDisplay:10.37,2013-07-14 16:27:00,
2013-07-14 11:29:00,87.6,61.7,29.00,SE,135,2.3,3.1,42,0.00,CLR,,0.00,WeatherDisplay:10.37,2013-07-14 16:29:00,
2013-07-14 11:32:00,88.5,62.5,29.00,SSW,202,2.3,2.3,42,0.00,CLR,,0.00,WeatherDisplay:10.37,2013-07-14 16:32:00,
2013-07-14 11:34:00,89.1,63.7,29.00,SW,225,2.3,2.3,43,0.00,CLR,,0.00,WeatherDisplay:10.37,2013-07-14 16:34:00,
2013-07-14 11:37:00,89.4,62.6,29.00,South,180,2.4,2.4,41,0.00,CLR,,0.00,WeatherDisplay:10.37,2013-07-14 16:37:00,
2013-07-14 11:38:00,88.2,60.8,29.00,SSE,158,4.0,4.0,40,0.00,CLR,,0.00,WeatherDisplay:10.37,2013-07-14 16:38:00,
2013-07-14 11:39:00,87.3,60.7,29.00,SSE,158,8.1,8.1,41,0.00,CLR,,0.00,WeatherDisplay:10.37,2013-07-14 16:39:00,
2013-07-14 11:42:00,87.4,62.2,29.00,SSE,158,3.8,3.8,43,0.00,CLR,,0.00,WeatherDisplay:10.37,2013-07-14 16:42:00,
2013-07-14 11:43:00,87.8,61.9,29.00,SW,225,3.5,3.5,42,0.00,CLR,,0.00,WeatherDisplay:10.37,2013-07-14 16:43:00,
2013-07-14 11:44:00,87.8,61.2,29.00,SSW,202,4.6,4.6,41,0.00,CLR,,0.00,WeatherDisplay:10.37,2013-07-14 16:44:00,
2013-07-14 11:45:00,87.8,61.2,29.00,SSW,207,2.0,5.0,41,0.00,CLR,,0.00,WeatherDisplay:10.37,2013-07-14 16:45:00,
2013-07-14 11:47:00,87.1,60.5,29.00,WNW,292,4.7,4.7,41,0.00,CLR,,0.00,WeatherDisplay:10.37,2013-07-14 16:47:00,
2013-07-14 11:48:00,86.7,59.5,29.00,SSE,158,4.6,4.6,40,0.00,CLR,,0.00,WeatherDisplay:10.37,2013-07-14 16:48:00,
2013-07-14 11:49:00,86.7,60.2,29.00,SSE,158,7.8,7.8,41,0.00,CLR,,0.00,WeatherDisplay:10.37,2013-07-14 16:49:00,
2013-07-14 11:50:00,86.7,60.2,29.00,SSW,202,5.8,5.8,41,0.00,CLR,,0.00,WeatherDisplay:10.37,2013-07-14 16:50:00,
2013-07-14 11:52:00,84.6,57.6,29.00,SSE,158,10.4,10.4,40,0.00,CLR,,0.00,WeatherDisplay:10.37,2013-07-14 16:52:00,
2013-07-14 11:53:00,84.0,58.5,29.00,SSE,158,9.2,9.2,42,0.00,CLR,,0.00,WeatherDisplay:10.37,2013-07-14 16:53:00,
2013-07-14 11:55:00,85.5,59.8,29.00,SSW,202,8.1,8.1,42,0.00,CLR,,0.00,WeatherDisplay:10.37,2013-07-14 16:55:00,
2013-07-14 11:58:00,86.5,60.7,29.00,SSW,202,5.8,5.8,42,0.00,CLR,,0.00,WeatherDisplay:10.37,2013-07-14 16:58:00,
2013-07-14 11:59:00,87.1,61.2,29.00,NNW,338,3.5,3.5,42,0.00,CLR,,0.00,WeatherDisplay:10.37,2013-07-14 16:59:00,
2013-07-14 12:00:00,87.3,61.4,29.00,NW,315,3.1,3.1,42,0.00,CLR,,0.00,WeatherDisplay:10.37,2013-07-14 17:00:00,
2013-07-14 12:03:00,85.5,59.1,29.00,South,180,8.5,8.5,41,0.00,CLR,,0.00,WeatherDisplay:10.37,2013-07-14 17:03:00,
2013-07-14 12:04:00,84.9,58.6,29.00,South,180,8.1,8.1,41,0.00,CLR,,0.00,WeatherDisplay:10.37,2013-07-14 17:04:00,
2013-07-14 12:05:00,84.9,58.6,29.00,SSE,158,5.8,5.8,41,0.00,CLR,,0.00,WeatherDisplay:10.37,2013-07-14 17:05:00,
2013-07-14 12:08:00,86.0,60.2,29.00,SE,135,8.1,8.1,42,0.00,CLR,,0.00,WeatherDisplay:10.37,2013-07-14 17:08:00,
2013-07-14 12:09:00,85.3,60.3,29.00,SSE,158,5.8,5.8,43,0.00,CLR,,0.00,WeatherDisplay:10.37,2013-07-14 17:09:00,
2013-07-14 12:10:00,85.3,60.3,29.00,SSE,158,4.6,4.6,43,0.00,CLR,,0.00,WeatherDisplay:10.37,2013-07-14 17:10:00,
2013-07-14 12:11:00,85.5,59.8,29.00,SSE,158,5.4,5.4,42,0.00,CLR,,0.00,WeatherDisplay:10.37,2013-07-14 17:11:00,
2013-07-14 12:13:00,86.9,61.0,29.00,South,180,8.1,8.1,42,0.00,CLR,,0.00,WeatherDisplay:10.37,2013-07-14 17:13:00,
2013-07-14 12:14:00,86.9,61.7,29.00,NE,45,8.1,8.1,43,0.00,CLR,,0.00,WeatherDisplay:10.37,2013-07-14 17:14:00,
2013-07-14 12:15:00,87.4,62.8,29.00,NE,45,4.6,4.6,44,0.00,CLR,,0.00,WeatherDisplay:10.37,2013-07-14 17:15:00,
2013-07-14 12:16:00,87.6,61.0,29.00,SSE,158,2.3,2.3,41,0.00,CLR,,0.00,WeatherDisplay:10.37,2013-07-14 17:16:00,
2013-07-14 12:18:00,87.1,61.2,29.00,NE,45,3.5,3.5,42,0.00,CLR,,0.00,WeatherDisplay:10.37,2013-07-14 17:18:00,
2013-07-14 12:20:00,86.9,59.7,29.00,SW,225,3.5,3.5,40,0.00,CLR,,0.00,WeatherDisplay:10.37,2013-07-14 17:20:00,
2013-07-14 12:22:00,87.1,59.8,29.00,SSE,158,3.5,3.5,40,0.00,CLR,,0.00,WeatherDisplay:10.37,2013-07-14 17:22:00,
2013-07-14 12:24:00,87.4,60.8,29.00,SE,135,6.9,6.9,41,0.00,CLR,,0.00,WeatherDisplay:10.37,2013-07-14 17:24:00,
2013-07-14 12:25:00,88.2,61.5,29.00,West,270,3.5,3.5,41,0.00,CLR,,0.00,WeatherDisplay:10.37,2013-07-14 17:25:00,
2013-07-14 12:27:00,88.0,61.3,29.00,SSE,158,5.8,5.8,41,0.00,CLR,,0.00,WeatherDisplay:10.37,2013-07-14 17:27:00,
2013-07-14 12:29:00,88.0,60.6,29.00,South,180,4.6,4.6,40,0.00,CLR,,0.00,WeatherDisplay:10.37,2013-07-14 17:29:00,
2013-07-14 12:30:00,88.3,61.0,29.00,SSE,158,4.6,4.6,40,0.00,CLR,,0.00,WeatherDisplay:10.37,2013-07-14 17:30:00,
2013-07-14 12:32:00,88.5,61.1,29.00,SSE,158,5.8,5.8,40,0.00,CLR,,0.00,WeatherDisplay:10.37,2013-07-14 17:32:00,
2013-07-14 12:34:00,89.8,62.2,29.00,SE,135,3.5,3.5,40,0.00,CLR,,0.00,WeatherDisplay:10.37,2013-07-14 17:34:00,
2013-07-14 12:35:00,89.8,62.2,29.00,SSW,202,3.5,3.5,40,0.00,CLR,,0.00,WeatherDisplay:10.37,2013-07-14 17:35:00,
2013-07-14 12:36:00,89.8,60.8,29.00,SW,225,3.5,3.5,38,0.00,CLR,,0.00,WeatherDisplay:10.37,2013-07-14 17:36:00,
2013-07-14 12:37:00,89.6,60.6,29.00,SW,225,8.1,8.1,38,0.00,CLR,,0.00,WeatherDisplay:10.37,2013-07-14 17:37:00,
2013-07-14 12:40:00,90.3,60.5,29.00,SSE,158,10.7,10.7,37,0.00,CLR,,0.00,WeatherDisplay:10.37,2013-07-14 17:40:00,
2013-07-14 12:41:00,89.2,58.8,29.00,South,180,10.4,10.4,36,0.00,CLR,,0.00,WeatherDisplay:10.37,2013-07-14 17:41:00,
2013-07-14 12:42:00,88.5,59.7,29.00,SSE,158,10.4,10.4,38,0.00,CLR,,0.00,WeatherDisplay:10.37,2013-07-14 17:42:00,
2013-07-14 12:45:00,86.7,58.1,29.00,WSW,248,10.4,10.4,38,0.00,CLR,,0.00,WeatherDisplay:10.37,2013-07-14 17:45:00,
2013-07-14 12:46:00,86.2,58.3,29.00,SE,135,8.1,8.1,39,0.00,CLR,,0.00,WeatherDisplay:10.37,2013-07-14 17:46:00,
2013-07-14 12:47:00,86.0,58.2,29.00,SE,135,5.8,5.8,39,0.00,CLR,,0.00,WeatherDisplay:10.37,2013-07-14 17:47:00,
2013-07-14 12:50:00,85.3,58.2,29.00,NW,315,10.4,10.4,40,0.00,CLR,,0.00,WeatherDisplay:10.37,2013-07-14 17:50:00,
2013-07-14 12:51:00,86.4,59.9,29.00,SSE,158,5.8,5.8,41,0.00,CLR,,0.00,WeatherDisplay:10.37,2013-07-14 17:51:00,
2013-07-14 12:52:00,87.1,59.8,29.00,South,180,8.5,8.5,40,0.00,CLR,,0.00,WeatherDisplay:10.37,2013-07-14 17:52:00,
2013-07-14 12:55:00,86.9,60.4,29.00,WSW,248,9.2,9.2,41,0.00,CLR,,0.00,WeatherDisplay:10.37,2013-07-14 17:55:00,
2013-07-14 12:56:00,86.4,59.2,29.00,South,180,9.2,9.2,40,0.00,CLR,,0.00,WeatherDisplay:10.37,2013-07-14 17:56:00,
2013-07-14 12:57:00,86.2,59.0,29.00,WSW,248,9.2,9.2,40,0.00,CLR,,0.00,WeatherDisplay:10.37,2013-07-14 17:57:00,
2013-07-14 12:58:00,85.6,57.8,29.00,SSE,158,6.0,6.0,39,0.00,CLR,,0.00,WeatherDisplay:10.37,2013-07-14 17:58:00,
2013-07-14 13:00:00,85.5,58.4,29.00,SSW,202,10.4,10.4,40,0.00,CLR,,0.00,WeatherDisplay:10.37,2013-07-14 18:00:00,
2013-07-14 13:02:00,86.2,58.3,29.00,ENE,68,10.4,10.4,39,0.00,CLR,,0.00,WeatherDisplay:10.37,2013-07-14 18:02:00,
2013-07-14 13:03:00,86.2,59.0,29.00,SSE,158,6.4,6.4,40,0.00,CLR,,0.00,WeatherDisplay:10.37,2013-07-14 18:03:00,
2013-07-14 13:05:00,85.3,58.2,29.00,SSW,202,12.7,12.7,40,0.00,CLR,,0.00,WeatherDisplay:10.37,2013-07-14 18:05:00,
2013-07-14 13:06:00,85.3,58.2,29.00,NE,45,12.7,12.7,40,0.00,CLR,,0.00,WeatherDisplay:10.37,2013-07-14 18:06:00,
2013-07-14 13:07:00,85.6,59.2,29.00,SSE,158,5.8,6.0,41,0.00,CLR,,0.00,WeatherDisplay:10.37,2013-07-14 18:07:00,
2013-07-14 13:08:00,86.7,60.2,29.00,SSW,202,3.5,3.5,41,0.00,CLR,,0.00,WeatherDisplay:10.37,2013-07-14 18:08:00,
2013-07-14 13:11:00,88.0,59.9,29.00,SSE,158,5.8,5.8,39,0.00,CLR,,0.00,WeatherDisplay:10.37,2013-07-14 18:11:00,
2013-07-14 13:12:00,88.2,58.6,29.00,SSW,202,6.2,6.2,37,0.00,CLR,,0.00,WeatherDisplay:10.37,2013-07-14 18:12:00,
2013-07-14 13:13:00,88.2,58.6,29.00,SW,225,8.7,8.7,37,0.00,CLR,,0.00,WeatherDisplay:10.37,2013-07-14 18:13:00,
2013-07-14 13:16:00,88.3,59.5,29.00,SSW,202,4.9,4.9,38,0.00,CLR,,0.00,WeatherDisplay:10.37,2013-07-14 18:16:00,
2013-07-14 13:17:00,87.8,57.5,29.00,South,180,8.1,8.1,36,0.00,CLR,,0.00,WeatherDisplay:10.37,2013-07-14 18:17:00,
2013-07-14 13:18:00,87.8,57.5,29.00,SSE,158,8.1,8.1,36,0.00,CLR,,0.00,WeatherDisplay:10.37,2013-07-14 18:18:00,
2013-07-14 13:21:00,88.0,59.2,29.00,SSW,202,8.1,8.1,38,0.00,CLR,,0.00,WeatherDisplay:10.37,2013-07-14 18:21:00,
2013-07-14 13:22:00,88.3,58.8,29.00,SE,135,8.1,8.1,37,0.00,CLR,,0.00,WeatherDisplay:10.37,2013-07-14 18:22:00,
2013-07-14 13:23:00,88.2,58.6,29.00,NNW,338,5.8,5.8,37,0.00,CLR,,0.00,WeatherDisplay:10.37,2013-07-14 18:23:00,
2013-07-14 13:26:00,88.7,59.8,28.97,WSW,248,6.9,6.9,38,0.00,CLR,,0.00,WeatherDisplay:10.37,2013-07-14 18:26:00,
2013-07-14 13:28:00,87.6,58.9,28.97,SSE,158,9.2,9.2,38,0.00,CLR,,0.00,WeatherDisplay:10.37,2013-07-14 18:28:00,
2013-07-14 13:31:00,86.9,59.0,28.97,SE,135,4.6,4.6,39,0.00,CLR,,0.00,WeatherDisplay:10.37,2013-07-14 18:31:00,
2013-07-14 13:32:00,87.1,59.1,28.97,ENE,68,4.6,4.6,39,0.00,CLR,,0.00,WeatherDisplay:10.37,2013-07-14 18:32:00,
2013-07-14 13:33:00,87.8,59.8,28.97,SSE,158,4.6,4.6,39,0.00,CLR,,0.00,WeatherDisplay:10.37,2013-07-14 18:33:00,
2013-07-14 13:36:00,87.8,58.3,28.97,SE,135,10.4,10.4,37,0.00,CLR,,0.00,WeatherDisplay:10.37,2013-07-14 18:36:00,
2013-07-14 13:37:00,88.0,57.7,28.97,ESE,112,9.2,9.2,36,0.00,CLR,,0.00,WeatherDisplay:10.37,2013-07-14 18:37:00,
2013-07-14 13:38:00,88.2,57.8,28.97,East,90,5.8,5.8,36,0.00,CLR,,0.00,WeatherDisplay:10.37,2013-07-14 18:38:00,
2013-07-14 13:41:00,88.7,58.3,28.97,SE,135,4.6,4.6,36,0.00,CLR,,0.00,WeatherDisplay:10.37,2013-07-14 18:41:00,
2013-07-14 13:43:00,88.7,59.1,28.97,SE,135,8.7,8.7,37,0.00,CLR,,0.00,WeatherDisplay:10.37,2013-07-14 18:43:00,
2013-07-14 13:47:00,89.1,60.1,28.97,ESE,112,3.5,3.5,38,0.00,CLR,,0.00,WeatherDisplay:10.37,2013-07-14 18:47:00,
2013-07-14 13:48:00,88.7,59.8,28.97,South,180,5.8,5.8,38,0.00,CLR,,0.00,WeatherDisplay:10.37,2013-07-14 18:48:00,
2013-07-14 13:52:00,87.8,59.0,28.97,SSW,202,3.1,3.1,38,0.00,CLR,,0.00,WeatherDisplay:10.37,2013-07-14 18:52:00,
2013-07-14 13:53:00,87.8,59.0,28.97,SSW,202,3.5,3.5,38,0.00,CLR,,0.00,WeatherDisplay:10.37,2013-07-14 18:53:00,
2013-07-14 13:54:00,87.6,59.6,28.97,WSW,248,3.5,3.5,39,0.00,CLR,,0.00,WeatherDisplay:10.37,2013-07-14 18:54:00,
2013-07-14 13:57:00,88.2,59.4,28.97,SSE,158,4.6,4.6,38,0.00,CLR,,0.00,WeatherDisplay:10.37,2013-07-14 18:57:00,
2013-07-14 13:58:00,88.2,59.4,28.97,SW,225,4.6,4.6,38,0.00,CLR,,0.00,WeatherDisplay:10.37,2013-07-14 18:58:00,
2013-07-14 13:59:00,88.2,59.4,28.97,SW,225,4.6,4.6,38,0.00,CLR,,0.00,WeatherDisplay:10.37,2013-07-14 18:59:00,
2013-07-14 14:02:00,89.1,60.9,28.97,SSE,158,4.6,4.6,39,0.00,CLR,,0.00,WeatherDisplay:10.37,2013-07-14 19:02:00,
2013-07-14 14:04:00,89.1,60.9,28.97,SE,135,5.8,5.8,39,0.00,CLR,,0.00,WeatherDisplay:10.37,2013-07-14 19:04:00,
2013-07-14 14:07:00,87.1,56.9,28.97,SSE,158,10.2,10.2,36,0.00,CLR,,0.00,WeatherDisplay:10.37,2013-07-14 19:07:00,
2013-07-14 14:09:00,86.5,57.2,28.97,SSE,158,9.2,9.2,37,0.00,CLR,,0.00,WeatherDisplay:10.37,2013-07-14 19:09:00,
2013-07-14 14:10:00,86.9,58.2,28.97,SW,225,6.0,6.0,38,0.00,CLR,,0.00,WeatherDisplay:10.37,2013-07-14 19:10:00,
2013-07-14 14:12:00,87.3,58.6,28.97,ESE,112,5.8,5.8,38,0.00,CLR,,0.00,WeatherDisplay:10.37,2013-07-14 19:12:00,
2013-07-14 14:14:00,88.3,58.8,28.97,East,90,3.5,3.5,37,0.00,CLR,,0.00,WeatherDisplay:10.37,2013-07-14 19:14:00,
2013-07-14 14:15:00,88.9,60.0,28.97,SE,135,3.5,3.5,38,0.00,CLR,,0.00,WeatherDisplay:10.37,2013-07-14 19:15:00,
2013-07-14 14:17:00,89.1,58.6,28.97,SSW,202,7.8,7.8,36,0.00,CLR,,0.00,WeatherDisplay:10.37,2013-07-14 19:17:00,
2013-07-14 14:19:00,89.1,58.6,28.97,SE,135,10.4,10.4,36,0.00,CLR,,0.00,WeatherDisplay:10.37,2013-07-14 19:19:00,
2013-07-14 14:20:00,89.1,58.6,28.97,SSE,158,10.4,10.4,36,0.00,CLR,,0.00,WeatherDisplay:10.37,2013-07-14 19:20:00,
2013-07-14 14:22:00,88.3,56.4,28.97,East,90,11.5,11.5,34,0.00,CLR,,0.00,WeatherDisplay:10.37,2013-07-14 19:22:00,
2013-07-14 14:25:00,89.6,56.7,28.97,South,180,4.6,4.6,33,0.00,CLR,,0.00,WeatherDisplay:10.37,2013-07-14 19:25:00,
2013-07-14 14:27:00,90.1,57.2,28.97,SSW,202,7.4,7.4,33,0.00,CLR,,0.00,WeatherDisplay:10.37,2013-07-14 19:27:00,
2013-07-14 14:30:00,89.8,57.7,28.97,SSE,158,6.9,6.9,34,0.00,CLR,,0.00,WeatherDisplay:10.37,2013-07-14 19:30:00,
2013-07-14 14:32:00,88.7,58.3,28.97,SE,135,9.2,9.2,36,0.00,CLR,,0.00,WeatherDisplay:10.37,2013-07-14 19:32:00,
2013-07-14 14:35:00,88.7,59.8,28.97,SE,135,5.8,5.8,38,0.00,CLR,,0.00,WeatherDisplay:10.37,2013-07-14 19:35:00,
2013-07-14 14:36:00,88.3,59.5,28.97,WSW,248,5.8,5.8,38,0.00,CLR,,0.00,WeatherDisplay:10.37,2013-07-14 19:36:00,
2013-07-14 14:38:00,88.2,58.6,28.97,East,90,4.6,5.4,37,0.00,CLR,,0.00,WeatherDisplay:10.37,2013-07-14 19:38:00,
2013-07-14 14:40:00,88.5,59.7,28.97,South,180,5.8,5.8,38,0.00,CLR,,0.00,WeatherDisplay:10.37,2013-07-14 19:40:00,
2013-07-14 14:41:00,88.5,59.7,28.97,SSE,158,3.5,3.5,38,0.00,CLR,,0.00,WeatherDisplay:10.37,2013-07-14 19:41:00,
2013-07-14 14:43:00,88.7,59.1,28.97,ESE,112,5.8,5.8,37,0.00,CLR,,0.00,WeatherDisplay:10.37,2013-07-14 19:43:00,
2013-07-14 14:46:00,89.2,58.8,28.97,SSE,158,3.8,3.8,36,0.00,CLR,,0.00,WeatherDisplay:10.37,2013-07-14 19:46:00,
2013-07-14 14:48:00,89.1,59.4,28.97,WSW,248,3.5,3.5,37,0.00,CLR,,0.00,WeatherDisplay:10.37,2013-07-14 19:48:00,
2013-07-14 14:51:00,90.0,60.2,28.97,South,180,3.5,3.5,37,0.00,CLR,,0.00,WeatherDisplay:10.37,2013-07-14 19:51:00,
2013-07-14 14:54:00,90.1,60.4,28.97,SE,135,5.8,5.8,37,0.00,CLR,,0.00,WeatherDisplay:10.37,2013-07-14 19:54:00,
2013-07-14 14:56:00,90.3,58.1,28.94,SSE,158,3.5,3.5,34,0.00,CLR,,0.00,WeatherDisplay:10.37,2013-07-14 19:56:00,
2013-07-14 14:57:00,90.5,59.1,28.94,SSE,158,5.8,5.8,35,0.00,CLR,,0.00,WeatherDisplay:10.37,2013-07-14 19:57:00,
2013-07-14 14:59:00,90.1,58.0,28.94,South,180,5.8,5.9,34,0.00,CLR,,0.00,WeatherDisplay:10.37,2013-07-14 19:59:00,
2013-07-14 15:01:00,88.9,57.7,28.94,West,270,5.8,5.8,35,0.00,CLR,,0.00,WeatherDisplay:10.37,2013-07-14 20:01:00,
2013-07-14 15:02:00,88.9,58.5,28.94,SE,135,5.8,5.8,36,0.00,CLR,,0.00,WeatherDisplay:10.37,2013-07-14 20:02:00,
2013-07-14 15:04:00,89.4,58.2,28.94,South,180,9.2,9.2,35,0.00,CLR,,0.00,WeatherDisplay:10.37,2013-07-14 20:04:00,
2013-07-14 15:06:00,89.6,58.3,28.94,SSE,158,5.4,5.4,35,0.00,CLR,,0.00,WeatherDisplay:10.37,2013-07-14 20:06:00,
2013-07-14 15:07:00,89.4,57.4,28.94,East,90,8.1,8.1,34,0.00,CLR,,0.00,WeatherDisplay:10.37,2013-07-14 20:07:00,
2013-07-14 15:09:00,89.2,57.2,28.94,SE,135,8.1,8.1,34,0.00,CLR,,0.00,WeatherDisplay:10.37,2013-07-14 20:09:00,
2013-07-14 15:11:00,89.1,58.6,28.97,East,90,4.6,4.6,36,0.00,CLR,,0.00,WeatherDisplay:10.37,2013-07-14 20:11:00,
2013-07-14 15:12:00,89.1,58.6,28.97,East,90,4.6,4.6,36,0.00,CLR,,0.00,WeatherDisplay:10.37,2013-07-14 20:12:00,
2013-07-14 15:13:00,89.1,58.6,28.97,SSE,158,7.4,7.4,36,0.00,CLR,,0.00,WeatherDisplay:10.37,2013-07-14 20:13:00,
2013-07-14 15:15:00,88.7,57.5,28.97,SE,135,6.9,6.9,35,0.00,CLR,,0.00,WeatherDisplay:10.37,2013-07-14 20:15:00,
2013-07-14 15:16:00,88.7,57.5,28.97,SE,135,6.9,6.9,35,0.00,CLR,,0.00,WeatherDisplay:10.37,2013-07-14 20:16:00,
2013-07-14 15:17:00,89.1,58.6,28.97,SSE,158,6.9,6.9,36,0.00,CLR,,0.00,WeatherDisplay:10.37,2013-07-14 20:17:00,
2013-07-14 15:18:00,89.1,57.8,28.97,South,180,11.5,11.5,35,0.00,CLR,,0.00,WeatherDisplay:10.37,2013-07-14 20:18:00,
2013-07-14 15:20:00,88.9,57.7,28.97,SW,225,6.9,7.8,35,0.00,CLR,,0.00,WeatherDisplay:10.37,2013-07-14 20:20:00,
2013-07-14 15:22:00,88.7,57.5,28.97,SSE,158,6.9,6.9,35,0.00,CLR,,0.00,WeatherDisplay:10.37,2013-07-14 20:22:00,
2013-07-14 15:23:00,88.7,56.7,28.97,SSE,158,11.5,11.5,34,0.00,CLR,,0.00,WeatherDisplay:10.37,2013-07-14 20:23:00,
2013-07-14 15:25:00,88.5,56.6,28.97,SSE,158,8.1,8.1,34,0.00,CLR,,0.00,WeatherDisplay:10.37,2013-07-14 20:25:00,
2013-07-14 15:27:00,88.9,58.5,28.97,SSE,158,4.6,4.6,36,0.00,CLR,,0.00,WeatherDisplay:10.37,2013-07-14 20:27:00,
2013-07-14 15:28:00,89.2,57.2,28.97,SW,225,5.4,5.4,34,0.00,CLR,,0.00,WeatherDisplay:10.37,2013-07-14 20:28:00,
2013-07-14 15:31:00,88.5,56.6,28.97,SSE,158,12.7,12.7,34,0.00,CLR,,0.00,WeatherDisplay:10.37,2013-07-14 20:31:00,
2013-07-14 15:32:00,88.7,56.7,28.97,SE,135,5.9,6.2,34,0.00,CLR,,0.00,WeatherDisplay:10.37,2013-07-14 20:32:00,
2013-07-14 15:33:00,88.7,57.5,28.97,West,270,5.8,5.8,35,0.00,CLR,,0.00,WeatherDisplay:10.37,2013-07-14 20:33:00,
2013-07-14 15:36:00,89.2,58.0,28.97,SE,135,8.5,8.5,35,0.00,CLR,,0.00,WeatherDisplay:10.37,2013-07-14 20:36:00,
2013-07-14 15:37:00,89.2,59.6,28.97,West,270,8.1,8.1,37,0.00,CLR,,0.00,WeatherDisplay:10.37,2013-07-14 20:37:00,
2013-07-14 15:39:00,89.2,57.2,28.97,South,180,8.1,8.1,34,0.00,CLR,,0.00,WeatherDisplay:10.37,2013-07-14 20:39:00,
2013-07-14 15:41:00,89.1,57.8,28.97,SSW,202,6.9,6.9,35,0.00,CLR,,0.00,WeatherDisplay:10.37,2013-07-14 20:41:00,
2013-07-14 15:42:00,89.4,56.5,28.97,West,270,3.8,3.8,33,0.00,CLR,,0.00,WeatherDisplay:10.37,2013-07-14 20:42:00,
2013-07-14 15:44:00,89.4,56.5,28.97,SSW,202,5.8,5.8,33,0.00,CLR,,0.00,WeatherDisplay:10.37,2013-07-14 20:44:00,
2013-07-14 15:46:00,89.6,55.8,28.97,SSE,158,10.4,10.4,32,0.00,CLR,,0.00,WeatherDisplay:10.37,2013-07-14 20:46:00,
2013-07-14 15:47:00,89.4,57.4,28.97,SE,135,6.9,6.9,34,0.00,CLR,,0.00,WeatherDisplay:10.37,2013-07-14 20:47:00,
2013-07-14 15:49:00,88.3,55.6,28.97,ESE,112,13.8,13.8,33,0.00,CLR,,0.00,WeatherDisplay:10.37,2013-07-14 20:49:00,
2013-07-14 15:51:00,88.3,55.6,28.97,SSE,158,9.2,9.2,33,0.00,CLR,,0.00,WeatherDisplay:10.37,2013-07-14 20:51:00,
2013-07-14 15:52:00,88.7,55.9,28.97,SE,135,6.9,6.9,33,0.00,CLR,,0.00,WeatherDisplay:10.37,2013-07-14 20:52:00,
2013-07-14 15:54:00,88.7,56.7,28.97,South,180,8.5,8.5,34,0.00,CLR,,0.00,WeatherDisplay:10.37,2013-07-14 20:54:00,
2013-07-14 15:55:00,88.7,56.7,28.97,SSE,156,5.0,9.0,34,0.00,CLR,,0.00,WeatherDisplay:10.37,2013-07-14 20:55:00,
2013-07-14 15:56:00,88.5,56.6,28.97,ENE,68,4.6,4.6,34,0.00,CLR,,0.00,WeatherDisplay:10.37,2013-07-14 20:56:00,
2013-07-14 15:57:00,88.5,54.9,28.97,SE,135,8.1,8.1,32,0.00,CLR,,0.00,WeatherDisplay:10.37,2013-07-14 20:57:00,
2013-07-14 15:58:00,88.5,54.9,28.97,SE,135,8.1,8.1,32,0.00,CLR,,0.00,WeatherDisplay:10.37,2013-07-14 20:58:00,
2013-07-14 15:59:00,88.5,55.7,28.97,WNW,292,6.9,6.9,33,0.00,CLR,,0.00,WeatherDisplay:10.37,2013-07-14 20:59:00,
2013-07-14 16:00:00,88.7,55.9,28.97,SSW,202,5.8,5.8,33,0.00,CLR,,0.00,WeatherDisplay:10.37,2013-07-14 21:00:00,
2013-07-14 16:01:00,88.5,54.0,28.97,South,180,8.1,8.1,31,0.00,CLR,,0.00,WeatherDisplay:10.37,2013-07-14 21:01:00,
2013-07-14 16:02:00,88.2,56.3,28.97,South,180,8.7,8.7,34,0.00,CLR,,0.00,WeatherDisplay:10.37,2013-07-14 21:02:00,
2013-07-14 16:03:00,88.2,56.3,28.97,SE,135,9.2,9.2,34,0.00,CLR,,0.00,WeatherDisplay:10.37,2013-07-14 21:03:00,
2013-07-14 16:04:00,87.8,54.3,28.97,SSE,158,10.9,10.9,32,0.00,CLR,,0.00,WeatherDisplay:10.37,2013-07-14 21:04:00,
2013-07-14 16:06:00,88.0,55.3,28.97,ENE,68,11.5,11.5,33,0.00,CLR,,0.00,WeatherDisplay:10.37,2013-07-14 21:06:00,
2013-07-14 16:07:00,88.2,56.3,28.97,SW,225,8.1,8.1,34,0.00,CLR,,0.00,WeatherDisplay:10.37,2013-07-14 21:07:00,
2013-07-14 16:08:00,88.3,56.4,28.97,SE,135,4.6,4.6,34,0.00,CLR,,0.00,WeatherDisplay:10.37,2013-07-14 21:08:00,
2013-07-14 16:10:00,88.2,55.4,28.97,SW,225,12.7,12.7,33,0.00,CLR,,0.00,WeatherDisplay:10.37,2013-07-14 21:10:00,
2013-07-14 16:11:00,88.2,54.6,28.97,WSW,248,8.1,8.1,32,0.00,CLR,,0.00,WeatherDisplay:10.37,2013-07-14 21:11:00,
2013-07-14 16:12:00,88.3,56.4,28.97,South,180,8.1,8.1,34,0.00,CLR,,0.00,WeatherDisplay:10.37,2013-07-14 21:12:00,
2013-07-14 16:13:00,88.5,55.7,28.97,WSW,248,5.8,5.8,33,0.00,CLR,,0.00,WeatherDisplay:10.37,2013-07-14 21:13:00,
2013-07-14 16:15:00,89.2,57.2,28.97,SW,225,6.9,6.9,34,0.00,CLR,,0.00,WeatherDisplay:10.37,2013-07-14 21:15:00,
2013-07-14 16:16:00,89.4,57.4,28.97,West,270,5.8,5.8,34,0.00,CLR,,0.00,WeatherDisplay:10.37,2013-07-14 21:16:00,
2013-07-14 16:18:00,89.8,58.5,28.97,South,180,4.6,4.6,35,0.00,CLR,,0.00,WeatherDisplay:10.37,2013-07-14 21:18:00,
2013-07-14 16:21:00,89.8,57.7,28.97,SSW,202,9.2,9.2,34,0.00,CLR,,0.00,WeatherDisplay:10.37,2013-07-14 21:21:00,
2013-07-14 16:23:00,89.8,57.7,28.97,SSE,158,12.7,12.7,34,0.00,CLR,,0.00,WeatherDisplay:10.37,2013-07-14 21:23:00,
2013-07-14 16:26:00,89.2,57.2,28.97,South,180,5.8,5.8,34,0.00,CLR,,0.00,WeatherDisplay:10.37,2013-07-14 21:26:00,
2013-07-14 16:27:00,89.2,57.2,28.97,SE,135,4.6,4.6,34,0.00,CLR,,0.00,WeatherDisplay:10.37,2013-07-14 21:27:00,
2013-07-14 16:28:00,89.1,56.2,28.97,South,180,17.3,17.3,33,0.00,CLR,,0.00,WeatherDisplay:10.37,2013-07-14 21:28:00,
2013-07-14 16:29:00,88.5,55.7,28.97,SSE,158,17.3,17.3,33,0.00,CLR,,0.00,WeatherDisplay:10.37,2013-07-14 21:29:00,
2013-07-14 16:31:00,87.8,55.9,28.97,South,180,6.2,6.2,34,0.00,CLR,,0.00,WeatherDisplay:10.37,2013-07-14 21:31:00,
2013-07-14 16:32:00,87.8,55.9,28.97,SSW,202,5.8,5.8,34,0.00,CLR,,0.00,WeatherDisplay:10.37,2013-07-14 21:32:00,
2013-07-14 16:33:00,87.6,55.8,28.97,SW,225,5.8,5.8,34,0.00,CLR,,0.00,WeatherDisplay:10.37,2013-07-14 21:33:00,
2013-07-14 16:34:00,87.3,56.3,28.97,SW,225,5.8,5.8,35,0.00,CLR,,0.00,WeatherDisplay:10.37,2013-07-14 21:34:00,
2013-07-14 16:36:00,87.6,57.4,28.97,SSW,202,2.3,2.3,36,0.00,CLR,,0.00,WeatherDisplay:10.37,2013-07-14 21:36:00,
2013-07-14 16:37:00,87.4,56.4,28.97,SSW,202,5.4,5.4,35,0.00,CLR,,0.00,WeatherDisplay:10.37,2013-07-14 21:37:00,
2013-07-14 16:38:00,87.3,57.0,28.97,SW,225,5.8,5.8,36,0.00,CLR,,0.00,WeatherDisplay:10.37,2013-07-14 21:38:00,
2013-07-14 16:39:00,87.3,57.0,28.97,SSW,202,5.8,5.8,36,0.00,CLR,,0.00,WeatherDisplay:10.37,2013-07-14 21:39:00,
2013-07-14 16:41:00,87.1,57.7,28.94,WSW,248,5.4,5.4,37,0.00,CLR,,0.00,WeatherDisplay:10.37,2013-07-14 21:41:00,
2013-07-14 16:42:00,86.9,57.5,28.94,WSW,248,5.8,5.8,37,0.00,CLR,,0.00,WeatherDisplay:10.37,2013-07-14 21:42:00,
2013-07-14 16:44:00,86.9,56.7,28.94,SSE,158,6.9,6.9,36,0.00,CLR,,0.00,WeatherDisplay:10.37,2013-07-14 21:44:00,
2013-07-14 16:46:00,86.5,56.4,28.94,SSW,202,12.7,12.7,36,0.00,CLR,,0.00,WeatherDisplay:10.37,2013-07-14 21:46:00,
2013-07-14 16:47:00,86.5,56.4,28.94,SE,135,4.9,4.9,36,0.00,CLR,,0.00,WeatherDisplay:10.37,2013-07-14 21:47:00,
2013-07-14 16:49:00,86.5,57.2,28.94,SE,135,9.7,9.7,37,0.00,CLR,,0.00,WeatherDisplay:10.37,2013-07-14 21:49:00,
2013-07-14 16:51:00,85.8,56.5,28.94,SSE,158,9.2,9.2,37,0.00,CLR,,0.00,WeatherDisplay:10.37,2013-07-14 21:51:00,
2013-07-14 16:52:00,85.8,56.5,28.94,SE,135,9.7,9.7,37,0.00,CLR,,0.00,WeatherDisplay:10.37,2013-07-14 21:52:00,
2013-07-14 16:54:00,86.2,57.6,28.94,SSE,158,9.2,9.2,38,0.00,CLR,,0.00,WeatherDisplay:10.37,2013-07-14 21:54:00,
2013-07-14 16:57:00,86.7,58.1,28.97,South,180,10.4,10.4,38,0.00,CLR,,0.00,WeatherDisplay:10.37,2013-07-14 21:57:00,
2013-07-14 16:59:00,86.5,57.2,28.97,South,180,12.7,12.7,37,0.00,CLR,,0.00,WeatherDisplay:10.37,2013-07-14 21:59:00,
2013-07-14 17:02:00,86.5,57.2,28.97,South,180,10.7,10.7,37,0.00,CLR,,0.00,WeatherDisplay:10.37,2013-07-14 22:02:00,
2013-07-14 17:04:00,86.9,59.0,28.97,South,180,5.9,5.9,39,0.00,CLR,,0.00,WeatherDisplay:10.37,2013-07-14 22:04:00,
2013-07-14 17:05:00,86.9,59.0,28.97,SE,135,6.9,6.9,39,0.00,CLR,,0.00,WeatherDisplay:10.37,2013-07-14 22:05:00,
2013-07-14 17:07:00,87.1,57.7,28.97,SSE,158,10.4,10.4,37,0.00,CLR,,0.00,WeatherDisplay:10.37,2013-07-14 22:07:00,
2013-07-14 17:09:00,87.1,58.4,28.97,SE,135,6.9,6.9,38,0.00,CLR,,0.00,WeatherDisplay:10.37,2013-07-14 22:09:00,
2013-07-14 17:10:00,87.1,58.4,28.97,SE,135,10.4,10.4,38,0.00,CLR,,0.00,WeatherDisplay:10.37,2013-07-14 22:10:00,
2013-07-14 17:12:00,86.9,58.2,28.97,SSW,202,9.2,9.2,38,0.00,CLR,,0.00,WeatherDisplay:10.37,2013-07-14 22:12:00,
2013-07-14 17:13:00,87.1,58.4,28.97,WSW,248,6.9,6.9,38,0.00,CLR,,0.00,WeatherDisplay:10.37,2013-07-14 22:13:00,
2013-07-14 17:14:00,87.1,58.4,28.97,SSE,158,6.9,6.9,38,0.00,CLR,,0.00,WeatherDisplay:10.37,2013-07-14 22:14:00,
2013-07-14 17:15:00,87.1,58.4,28.97,SW,225,6.9,6.9,38,0.00,CLR,,0.00,WeatherDisplay:10.37,2013-07-14 22:15:00,
2013-07-14 17:17:00,86.7,58.8,28.97,South,180,5.8,5.8,39,0.00,CLR,,0.00,WeatherDisplay:10.37,2013-07-14 22:17:00,
2013-07-14 17:18:00,86.7,58.8,28.97,SSE,158,5.8,5.8,39,0.00,CLR,,0.00,WeatherDisplay:10.37,2013-07-14 22:18:00,
2013-07-14 17:19:00,86.5,59.3,28.97,SSE,158,6.9,6.9,40,0.00,CLR,,0.00,WeatherDisplay:10.37,2013-07-14 22:19:00,
2013-07-14 17:20:00,86.5,59.3,28.97,SE,135,5.8,5.8,40,0.00,CLR,,0.00,WeatherDisplay:10.37,2013-07-14 22:20:00,
2013-07-14 17:22:00,86.5,58.6,28.97,WNW,292,9.2,9.2,39,0.00,CLR,,0.00,WeatherDisplay:10.37,2013-07-14 22:22:00,
2013-07-14 17:23:00,86.7,58.8,28.97,SSE,158,8.1,8.1,39,0.00,CLR,,0.00,WeatherDisplay:10.37,2013-07-14 22:23:00,
2013-07-14 17:24:00,86.7,58.8,28.94,SSE,158,6.9,6.9,39,0.00,CLR,,0.00,WeatherDisplay:10.37,2013-07-14 22:24:00,
2013-07-14 17:25:00,86.7,58.8,28.94,SSE,158,9.8,9.8,39,0.00,CLR,,0.00,WeatherDisplay:10.37,2013-07-14 22:25:00,
2013-07-14 17:27:00,86.2,58.3,28.94,SSE,158,8.1,8.1,39,0.00,CLR,,0.00,WeatherDisplay:10.37,2013-07-14 22:27:00,
2013-07-14 17:28:00,86.2,58.3,28.94,WSW,248,8.1,8.1,39,0.00,CLR,,0.00,WeatherDisplay:10.37,2013-07-14 22:28:00,
2013-07-14 17:30:00,86.0,58.2,28.94,SSE,158,6.9,6.9,39,0.00,CLR,,0.00,WeatherDisplay:10.37,2013-07-14 22:30:00,
2013-07-14 17:31:00,85.8,58.0,28.94,South,180,6.9,6.9,39,0.00,CLR,,0.00,WeatherDisplay:10.37,2013-07-14 22:31:00,
2013-07-14 17:32:00,86.2,58.3,28.94,South,180,3.5,4.0,39,0.00,CLR,,0.00,WeatherDisplay:10.37,2013-07-14 22:32:00,
2013-07-14 17:34:00,86.4,58.5,28.94,SSE,158,5.8,5.8,39,0.00,CLR,,0.00,WeatherDisplay:10.37,2013-07-14 22:34:00,
2013-07-14 17:35:00,86.2,58.3,28.94,NNE,22,5.8,5.8,39,0.00,CLR,,0.00,WeatherDisplay:10.37,2013-07-14 22:35:00,
2013-07-14 17:36:00,86.2,58.3,28.94,West,270,3.5,3.8,39,0.00,CLR,,0.00,WeatherDisplay:10.37,2013-07-14 22:36:00,
2013-07-14 17:38:00,86.2,58.3,28.94,North,0,4.6,4.6,39,0.00,CLR,,0.00,WeatherDisplay:10.37,2013-07-14 22:38:00,
2013-07-14 17:39:00,85.8,58.0,28.94,SE,135,6.9,6.9,39,0.00,CLR,,0.00,WeatherDisplay:10.37,2013-07-14 22:39:00,
2013-07-14 17:40:00,85.6,57.8,28.97,SSW,202,8.1,8.1,39,0.00,CLR,,0.00,WeatherDisplay:10.37,2013-07-14 22:40:00,
2013-07-14 17:41:00,85.8,58.0,28.97,South,180,5.8,5.8,39,0.00,CLR,,0.00,WeatherDisplay:10.37,2013-07-14 22:41:00,
2013-07-14 17:43:00,86.2,58.3,28.97,SSE,158,5.8,5.8,39,0.00,CLR,,0.00,WeatherDisplay:10.37,2013-07-14 22:43:00,
2013-07-14 17:44:00,86.2,58.3,28.97,South,180,3.5,3.5,39,0.00,CLR,,0.00,WeatherDisplay:10.37,2013-07-14 22:44:00,
2013-07-14 17:45:00,86.4,58.5,28.97,SSE,158,6.9,6.9,39,0.00,CLR,,0.00,WeatherDisplay:10.37,2013-07-14 22:45:00,
2013-07-14 17:46:00,86.4,58.5,28.97,SSW,202,6.9,6.9,39,0.00,CLR,,0.00,WeatherDisplay:10.37,2013-07-14 22:46:00,
2013-07-14 17:48:00,85.8,58.0,28.97,South,180,8.1,8.1,39,0.00,CLR,,0.00,WeatherDisplay:10.37,2013-07-14 22:48:00,
2013-07-14 17:49:00,85.6,59.2,28.97,South,180,8.1,8.1,41,0.00,CLR,,0.00,WeatherDisplay:10.37,2013-07-14 22:49:00,
2013-07-14 17:50:00,85.6,59.2,28.97,SSE,158,8.1,8.1,41,0.00,CLR,,0.00,WeatherDisplay:10.37,2013-07-14 22:50:00,
2013-07-14 17:51:00,85.6,59.2,28.97,SSW,202,5.8,5.8,41,0.00,CLR,,0.00,WeatherDisplay:10.37,2013-07-14 22:51:00,
2013-07-14 17:53:00,85.8,58.7,28.97,South,180,6.9,6.9,40,0.00,CLR,,0.00,WeatherDisplay:10.37,2013-07-14 22:53:00,
2013-07-14 17:54:00,85.6,59.2,28.97,SE,135,9.2,9.2,41,0.00,CLR,,0.00,WeatherDisplay:10.37,2013-07-14 22:54:00,
2013-07-14 17:55:00,85.6,59.2,28.97,SSW,202,6.9,6.9,41,0.00,CLR,,0.00,WeatherDisplay:10.37,2013-07-14 22:55:00,
2013-07-14 17:56:00,85.6,59.2,28.97,SSW,202,5.8,5.8,41,0.00,CLR,,0.00,WeatherDisplay:10.37,2013-07-14 22:56:00,
2013-07-14 17:57:00,85.8,59.4,28.97,South,180,5.8,5.8,41,0.00,CLR,,0.00,WeatherDisplay:10.37,2013-07-14 22:57:00,
2013-07-14 17:58:00,85.6,59.2,28.97,SSE,158,5.8,5.8,41,0.00,CLR,,0.00,WeatherDisplay:10.37,2013-07-14 22:58:00,
2013-07-14 17:59:00,85.6,58.5,28.97,SSE,158,6.0,6.0,40,0.00,CLR,,0.00,WeatherDisplay:10.37,2013-07-14 22:59:00,
2013-07-14 18:01:00,85.6,58.5,28.97,South,180,6.9,6.9,40,0.00,CLR,,0.00,WeatherDisplay:10.37,2013-07-14 23:01:00,
2013-07-14 18:02:00,85.6,58.5,28.97,SSE,158,4.6,4.6,40,0.00,CLR,,0.00,WeatherDisplay:10.37,2013-07-14 23:02:00,
2013-07-14 18:03:00,85.6,59.2,28.97,SSW,202,4.6,4.6,41,0.00,CLR,,0.00,WeatherDisplay:10.37,2013-07-14 23:03:00,
2013-07-14 18:05:00,85.8,60.1,28.97,South,180,2.3,2.4,42,0.00,CLR,,0.00,WeatherDisplay:10.37,2013-07-14 23:05:00,
2013-07-14 18:06:00,86.2,60.4,28.97,SSE,158,3.5,3.5,42,0.00,CLR,,0.00,WeatherDisplay:10.37,2013-07-14 23:06:00,
2013-07-14 18:07:00,86.4,59.9,28.97,SE,135,8.1,8.1,41,0.00,CLR,,0.00,WeatherDisplay:10.37,2013-07-14 23:07:00,
2013-07-14 18:09:00,86.2,59.0,28.97,South,180,8.1,8.1,40,0.00,CLR,,0.00,WeatherDisplay:10.37,2013-07-14 23:09:00,
2013-07-14 18:10:00,86.4,59.9,28.97,East,90,4.6,4.6,41,0.00,CLR,,0.00,WeatherDisplay:10.37,2013-07-14 23:10:00,
2013-07-14 18:11:00,86.4,59.9,28.97,South,180,7.6,7.6,41,0.00,CLR,,0.00,WeatherDisplay:10.37,2013-07-14 23:11:00,
2013-07-14 18:12:00,86.4,59.2,28.97,South,180,8.1,8.1,40,0.00,CLR,,0.00,WeatherDisplay:10.37,2013-07-14 23:12:00,
2013-07-14 18:14:00,86.5,59.3,28.97,SSE,158,4.6,4.6,40,0.00,CLR,,0.00,WeatherDisplay:10.37,2013-07-14 23:14:00,
2013-07-14 18:15:00,86.5,59.3,28.97,SSE,158,4.6,4.6,40,0.00,CLR,,0.00,WeatherDisplay:10.37,2013-07-14 23:15:00,
2013-07-14 18:16:00,86.5,59.3,28.97,WSW,248,4.6,4.6,40,0.00,CLR,,0.00,WeatherDisplay:10.37,2013-07-14 23:16:00,
2013-07-14 18:17:00,86.5,59.3,28.97,South,180,4.7,4.7,40,0.00,CLR,,0.00,WeatherDisplay:10.37,2013-07-14 23:17:00,
2013-07-14 18:18:00,86.5,59.3,28.97,South,180,4.7,4.7,40,0.00,CLR,,0.00,WeatherDisplay:10.37,2013-07-14 23:18:00,
2013-07-14 18:19:00,86.7,58.8,28.97,SSE,158,5.8,5.8,39,0.00,CLR,,0.00,WeatherDisplay:10.37,2013-07-14 23:19:00,
2013-07-14 18:21:00,86.5,59.3,28.97,SSE,158,6.9,6.9,40,0.00,CLR,,0.00,WeatherDisplay:10.37,2013-07-14 23:21:00,
2013-07-14 18:22:00,86.5,59.3,28.97,SSE,158,5.6,5.6,40,0.00,CLR,,0.00,WeatherDisplay:10.37,2013-07-14 23:22:00,
2013-07-14 18:23:00,86.5,59.3,28.97,SW,225,4.6,4.6,40,0.00,CLR,,0.00,WeatherDisplay:10.37,2013-07-14 23:23:00,
2013-07-14 18:24:00,86.7,60.2,28.97,SE,135,4.6,4.6,41,0.00,CLR,,0.00,WeatherDisplay:10.37,2013-07-14 23:24:00,
2013-07-14 18:26:00,87.1,60.5,28.97,SSE,158,3.3,3.3,41,0.00,CLR,,0.00,WeatherDisplay:10.37,2013-07-14 23:26:00,
2013-07-14 18:27:00,87.1,59.8,28.97,SSE,158,8.1,8.1,40,0.00,CLR,,0.00,WeatherDisplay:10.37,2013-07-14 23:27:00,
2013-07-14 18:28:00,86.9,59.7,28.97,SSE,158,9.2,9.2,40,0.00,CLR,,0.00,WeatherDisplay:10.37,2013-07-14 23:28:00,
2013-07-14 18:29:00,86.5,59.3,28.97,ESE,112,6.2,6.2,40,0.00,CLR,,0.00,WeatherDisplay:10.37,2013-07-14 23:29:00,
2013-07-14 18:31:00,86.5,58.6,28.97,SE,135,9.8,9.8,39,0.00,CLR,,0.00,WeatherDisplay:10.37,2013-07-14 23:31:00,
2013-07-14 18:32:00,86.2,59.0,28.97,SSE,158,9.2,9.2,40,0.00,CLR,,0.00,WeatherDisplay:10.37,2013-07-14 23:32:00,
2013-07-14 18:33:00,86.2,59.0,28.97,SE,135,5.8,5.8,40,0.00,CLR,,0.00,WeatherDisplay:10.37,2013-07-14 23:33:00,
2013-07-14 18:34:00,86.2,59.0,28.97,South,180,7.1,7.1,40,0.00,CLR,,0.00,WeatherDisplay:10.37,2013-07-14 23:34:00,
2013-07-14 18:36:00,86.2,59.0,28.97,SSE,158,8.1,8.1,40,0.00,CLR,,0.00,WeatherDisplay:10.37,2013-07-14 23:36:00,
2013-07-14 18:37:00,86.0,58.9,28.97,South,180,4.6,4.6,40,0.00,CLR,,0.00,WeatherDisplay:10.37,2013-07-14 23:37:00,
2013-07-14 18:38:00,86.0,59.6,28.97,SE,135,3.5,3.5,41,0.00,CLR,,0.00,WeatherDisplay:10.37,2013-07-14 23:38:00,
2013-07-14 18:39:00,86.0,58.9,28.97,SSE,158,10.2,10.2,40,0.00,CLR,,0.00,WeatherDisplay:10.37,2013-07-14 23:39:00,
2013-07-14 18:42:00,85.6,59.2,28.97,South,180,6.9,6.9,41,0.00,CLR,,0.00,WeatherDisplay:10.37,2013-07-14 23:42:00,
2013-07-14 18:43:00,85.5,59.1,28.97,South,180,9.2,9.2,41,0.00,CLR,,0.00,WeatherDisplay:10.37,2013-07-14 23:43:00,
2013-07-14 18:45:00,85.5,59.1,28.97,SE,135,2.3,3.1,41,0.00,CLR,,0.00,WeatherDisplay:10.37,2013-07-14 23:45:00,
2013-07-14 18:47:00,85.3,58.9,28.97,SSE,158,8.1,8.1,41,0.00,CLR,,0.00,WeatherDisplay:10.37,2013-07-14 23:47:00,
2013-07-14 18:48:00,84.9,58.6,28.97,SSW,202,6.9,6.9,41,0.00,CLR,,0.00,WeatherDisplay:10.37,2013-07-14 23:48:00,
2013-07-14 18:49:00,84.7,58.4,28.97,SSE,158,8.1,8.1,41,0.00,CLR,,0.00,WeatherDisplay:10.37,2013-07-14 23:49:00,
2013-07-14 18:50:00,84.4,58.1,28.97,SSE,158,8.1,8.1,41,0.00,CLR,,0.00,WeatherDisplay:10.37,2013-07-14 23:50:00,
2013-07-14 18:52:00,84.0,58.5,28.97,South,180,6.9,6.9,42,0.00,CLR,,0.00,WeatherDisplay:10.37,2013-07-14 23:52:00,
2013-07-14 18:53:00,84.0,58.5,28.97,South,180,6.9,6.9,42,0.00,CLR,,0.00,WeatherDisplay:10.37,2013-07-14 23:53:00,
2013-07-14 18:54:00,84.2,58.6,28.97,South,180,4.6,4.6,42,0.00,CLR,,0.00,WeatherDisplay:10.37,2013-07-14 23:54:00,
2013-07-14 18:55:00,84.0,58.5,28.97,SSE,158,5.8,5.8,42,0.00,CLR,,0.00,WeatherDisplay:10.37,2013-07-14 23:55:00,
2013-07-14 18:57:00,83.8,59.0,28.97,SSE,158,5.8,5.8,43,0.00,CLR,,0.00,WeatherDisplay:10.37,2013-07-14 23:57:00,
2013-07-14 18:58:00,83.8,59.0,28.97,SW,225,4.6,4.6,43,0.00,CLR,,0.00,WeatherDisplay:10.37,2013-07-14 23:58:00,
2013-07-14 18:59:00,83.8,59.0,28.97,SSE,158,4.6,4.6,43,0.00,CLR,,0.00,WeatherDisplay:10.37,2013-07-14 23:59:00,
2013-07-14 19:00:00,83.8,59.0,28.97,SSE,158,5.8,5.8,43,0.00,CLR,,0.00,WeatherDisplay:10.37,2013-07-15 00:00:00,
2013-07-14 19:02:00,84.0,59.1,28.97,SSE,158,4.6,4.6,43,0.00,CLR,,0.00,WeatherDisplay:10.37,2013-07-15 00:02:00,
2013-07-14 19:03:00,84.0,59.1,28.97,SSE,158,4.9,4.9,43,0.00,CLR,,0.00,WeatherDisplay:10.37,2013-07-15 00:03:00,
2013-07-14 19:04:00,84.0,59.1,28.97,South,180,4.6,4.6,43,0.00,CLR,,0.00,WeatherDisplay:10.37,2013-07-15 00:04:00,
2013-07-14 19:05:00,84.2,59.3,28.97,SSE,158,6.4,6.4,43,0.00,CLR,,0.00,WeatherDisplay:10.37,2013-07-15 00:05:00,
2013-07-14 19:07:00,84.2,59.3,28.97,SSE,158,5.8,5.8,43,0.00,CLR,,0.00,WeatherDisplay:10.37,2013-07-15 00:07:00,
2013-07-14 19:08:00,84.2,59.3,28.97,SSW,202,5.8,5.8,43,0.00,CLR,,0.00,WeatherDisplay:10.37,2013-07-15 00:08:00,
2013-07-14 19:09:00,84.2,59.3,28.97,SE,135,3.5,3.5,43,0.00,CLR,,0.00,WeatherDisplay:10.37,2013-07-15 00:09:00,
2013-07-14 19:10:00,84.2,59.3,28.97,SSW,202,4.6,4.6,43,0.00,CLR,,0.00,WeatherDisplay:10.37,2013-07-15 00:10:00,
2013-07-14 19:13:00,84.2,59.3,28.97,South,180,4.6,4.6,43,0.00,CLR,,0.00,WeatherDisplay:10.37,2013-07-15 00:13:00,
2013-07-14 19:14:00,84.2,59.3,28.97,NNE,22,4.6,4.6,43,0.00,CLR,,0.00,WeatherDisplay:10.37,2013-07-15 00:14:00,
2013-07-14 19:15:00,84.4,59.4,28.97,South,180,2.3,2.3,43,0.00,CLR,,0.00,WeatherDisplay:10.37,2013-07-15 00:15:00,
2013-07-14 19:18:00,84.4,59.4,28.97,SSW,202,3.5,3.5,43,0.00,CLR,,0.00,WeatherDisplay:10.37,2013-07-15 00:18:00,
2013-07-14 19:19:00,84.4,59.4,28.97,SW,225,2.3,2.3,43,0.00,CLR,,0.00,WeatherDisplay:10.37,2013-07-15 00:19:00,
2013-07-14 19:20:00,84.4,59.4,28.97,SSW,202,3.5,3.5,43,0.00,CLR,,0.00,WeatherDisplay:10.37,2013-07-15 00:20:00,
2013-07-14 19:21:00,84.4,59.4,28.97,SW,225,2.4,2.4,43,0.00,CLR,,0.00,WeatherDisplay:10.37,2013-07-15 00:21:00,
2013-07-14 19:23:00,84.4,59.4,28.97,South,180,1.2,0.0,43,0.00,CLR,,0.00,WeatherDisplay:10.37,2013-07-15 00:23:00,
2013-07-14 19:24:00,84.4,59.4,28.97,WSW,248,0.9,0.0,43,0.00,CLR,,0.00,WeatherDisplay:10.37,2013-07-15 00:24:00,
2013-07-14 19:25:00,84.4,60.1,28.97,SE,135,1.2,0.0,44,0.00,CLR,,0.00,WeatherDisplay:10.37,2013-07-15 00:25:00,
2013-07-14 19:26:00,84.4,60.1,28.97,SSW,202,1.2,1.2,44,0.00,CLR,,0.00,WeatherDisplay:10.37,2013-07-15 00:26:00,
2013-07-14 19:29:00,84.2,59.3,28.97,WSW,248,3.5,3.5,43,0.00,CLR,,0.00,WeatherDisplay:10.37,2013-07-15 00:29:00,
2013-07-14 19:30:00,84.2,59.3,28.97,SSW,205,2.0,5.0,43,0.00,CLR,,0.00,WeatherDisplay:10.37,2013-07-15 00:30:00,
2013-07-14 19:31:00,84.2,59.9,28.97,SW,225,3.5,3.5,44,0.00,CLR,,0.00,WeatherDisplay:10.37,2013-07-15 00:31:00,
2013-07-14 19:34:00,84.0,59.8,28.97,SW,225,1.6,0.0,44,0.00,CLR,,0.00,WeatherDisplay:10.37,2013-07-15 00:34:00,
2013-07-14 19:35:00,84.0,59.8,28.97,SSE,158,2.6,2.6,44,0.00,CLR,,0.00,WeatherDisplay:10.37,2013-07-15 00:35:00,
2013-07-14 19:36:00,84.0,59.8,28.97,WSW,248,2.3,0.0,44,0.00,CLR,,0.00,WeatherDisplay:10.37,2013-07-15 00:36:00,
2013-07-14 19:37:00,83.8,59.6,28.97,WSW,248,0.0,0.0,44,0.00,CLR,,0.00,WeatherDisplay:10.37,2013-07-15 00:37:00,
2013-07-14 19:39:00,83.7,60.1,28.97,SW,225,0.0,0.0,45,0.00,CLR,,0.00,WeatherDisplay:10.37,2013-07-15 00:39:00,
2013-07-14 19:40:00,83.5,59.9,28.94,SSE,158,0.0,0.0,45,0.00,CLR,,0.00,WeatherDisplay:10.37,2013-07-15 00:40:00,
2013-07-14 19:41:00,83.5,59.9,28.94,West,270,2.3,0.0,45,0.00,CLR,,0.00,WeatherDisplay:10.37,2013-07-15 00:41:00,
2013-07-14 19:42:00,83.3,59.7,28.94,South,180,3.1,3.1,45,0.00,CLR,,0.00,WeatherDisplay:10.37,2013-07-15 00:42:00,
2013-07-14 19:44:00,82.8,59.9,28.94,SSW,202,3.5,3.5,46,0.00,CLR,,0.00,WeatherDisplay:10.37,2013-07-15 00:44:00,
2013-07-14 19:45:00,82.8,59.9,28.94,SE,135,2.3,0.0,46,0.00,CLR,,0.00,WeatherDisplay:10.37,2013-07-15 00:45:00,
2013-07-14 19:46:00,82.6,59.7,28.94,South,180,2.3,2.3,46,0.00,CLR,,0.00,WeatherDisplay:10.37,2013-07-15 00:46:00,
2013-07-14 19:47:00,82.4,59.5,28.94,South,180,2.3,0.0,46,0.00,CLR,,0.00,WeatherDisplay:10.37,2013-07-15 00:47:00,
2013-07-14 19:49:00,82.4,59.5,28.94,SSE,158,2.3,2.3,46,0.00,CLR,,0.00,WeatherDisplay:10.37,2013-07-15 00:49:00,
2013-07-14 19:50:00,82.2,60.0,28.94,South,180,2.9,2.9,47,0.00,CLR,,0.00,WeatherDisplay:10.37,2013-07-15 00:50:00,
2013-07-14 19:51:00,82.0,60.4,28.94,SSW,202,3.5,3.5,48,0.00,CLR,,0.00,WeatherDisplay:10.37,2013-07-15 00:51:00,
2013-07-14 19:52:00,82.0,60.4,28.94,SW,225,1.2,0.0,48,0.00,CLR,,0.00,WeatherDisplay:10.37,2013-07-15 00:52:00,
2013-07-14 19:55:00,81.9,60.2,28.94,SSW,192,0.0,3.0,48,0.00,CLR,,0.00,WeatherDisplay:10.37,2013-07-15 00:55:00,
2013-07-14 19:56:00,81.7,60.1,28.94,SW,225,0.0,0.0,48,0.00,CLR,,0.00,WeatherDisplay:10.37,2013-07-15 00:56:00,
2013-07-14 19:58:00,81.5,60.5,28.94,SW,225,0.0,0.0,49,0.00,CLR,,0.00,WeatherDisplay:10.37,2013-07-15 00:58:00,
2013-07-14 20:00:00,81.3,60.3,28.94,SSW,212,0.0,0.0,49,0.00,CLR,,0.00,WeatherDisplay:10.37,2013-07-15 01:00:00,
2013-07-14 20:01:00,81.1,60.7,28.94,South,180,0.0,0.0,50,0.00,CLR,,0.00,WeatherDisplay:10.37,2013-07-15 01:01:00,
2013-07-14 20:02:00,81.0,60.6,28.94,WSW,248,0.0,0.0,50,0.00,CLR,,0.00,WeatherDisplay:10.37,2013-07-15 01:02:00,
2013-07-14 20:03:00,80.8,60.4,28.94,SW,225,0.0,0.0,50,0.00,CLR,,0.00,WeatherDisplay:10.37,2013-07-15 01:03:00,
2013-07-14 20:05:00,80.6,60.2,28.94,SW,225,1.2,0.0,50,0.00,CLR,,0.00,WeatherDisplay:10.37,2013-07-15 01:05:00,
2013-07-14 20:07:00,80.4,60.6,28.94,SW,225,0.0,0.0,51,0.00,CLR,,0.00,WeatherDisplay:10.37,2013-07-15 01:07:00,
2013-07-14 20:08:00,80.2,60.5,28.94,SW,225,0.0,0.0,51,0.00,CLR,,0.00,WeatherDisplay:10.37,2013-07-15 01:08:00,
2013-07-14 20:10:00,80.1,60.3,28.97,SW,225,0.0,0.0,51,0.00,CLR,,0.00,WeatherDisplay:10.37,2013-07-15 01:10:00,
2013-07-14 20:12:00,79.7,60.5,28.97,SW,225,0.0,0.0,52,0.00,CLR,,0.00,WeatherDisplay:10.37,2013-07-15 01:12:00,
2013-07-14 20:14:00,79.5,60.4,28.97,SW,225,0.0,0.0,52,0.00,CLR,,0.00,WeatherDisplay:10.37,2013-07-15 01:14:00,
2013-07-14 20:15:00,79.3,60.2,28.97,WSW,248,0.0,0.0,52,0.00,CLR,,0.00,WeatherDisplay:10.37,2013-07-15 01:15:00,
2013-07-14 20:16:00,79.3,60.2,28.97,WSW,248,0.0,0.0,52,0.00,CLR,,0.00,WeatherDisplay:10.37,2013-07-15 01:16:00,
2013-07-14 20:17:00,79.2,60.0,28.97,WSW,248,0.0,0.0,52,0.00,CLR,,0.00,WeatherDisplay:10.37,2013-07-15 01:17:00,
2013-07-14 20:19:00,79.0,60.4,28.97,SW,225,0.0,0.0,53,0.00,CLR,,0.00,WeatherDisplay:10.37,2013-07-15 01:19:00,
2013-07-14 20:21:00,78.8,61.3,28.97,SW,225,0.0,0.0,55,0.00,CLR,,0.00,WeatherDisplay:10.37,2013-07-15 01:21:00,
2013-07-14 20:22:00,78.6,61.1,28.97,SW,225,0.0,0.0,55,0.00,CLR,,0.00,WeatherDisplay:10.37,2013-07-15 01:22:00,
2013-07-14 20:24:00,78.4,60.9,28.97,NNW,338,0.0,0.0,55,0.00,CLR,,0.00,WeatherDisplay:10.37,2013-07-15 01:24:00,
2013-07-14 20:26:00,77.9,61.9,28.97,NNW,338,0.0,0.0,58,0.00,CLR,,0.00,WeatherDisplay:10.37,2013-07-15 01:26:00,
2013-07-14 20:27:00,77.5,61.6,28.97,NNW,338,1.6,0.0,58,0.00,CLR,,0.00,WeatherDisplay:10.37,2013-07-15 01:27:00,
2013-07-14 20:29:00,77.2,62.7,28.97,NNW,338,0.0,0.9,61,0.00,CLR,,0.00,WeatherDisplay:10.37,2013-07-15 01:29:00,
2013-07-14 20:31:00,76.8,61.9,28.97,NNW,338,0.0,0.0,60,0.00,CLR,,0.00,WeatherDisplay:10.37,2013-07-15 01:31:00,
2013-07-14 20:34:00,76.5,62.0,28.97,NW,315,0.0,0.0,61,0.00,CLR,,0.00,WeatherDisplay:10.37,2013-07-15 01:34:00,
2013-07-14 20:36:00,76.1,62.1,28.97,NW,315,0.0,0.0,62,0.00,CLR,,0.00,WeatherDisplay:10.37,2013-07-15 01:36:00,
2013-07-14 20:37:00,76.1,62.1,28.97,NW,315,0.0,0.0,62,0.00,CLR,,0.00,WeatherDisplay:10.37,2013-07-15 01:37:00,
2013-07-14 20:39:00,75.9,62.9,28.97,NW,315,0.0,0.0,64,0.00,CLR,,0.00,WeatherDisplay:10.37,2013-07-15 01:39:00,
2013-07-14 20:42:00,75.7,62.2,28.97,NW,315,0.0,0.0,63,0.00,CLR,,0.00,WeatherDisplay:10.37,2013-07-15 01:42:00,
2013-07-14 20:44:00,75.2,62.2,28.97,WNW,292,0.0,0.0,64,0.00,CLR,,0.00,WeatherDisplay:10.37,2013-07-15 01:44:00,
2013-07-14 20:45:00,75.2,62.2,28.97,WNW,292,1.2,0.0,64,0.00,CLR,,0.00,WeatherDisplay:10.37,2013-07-15 01:45:00,
2013-07-14 20:47:00,75.0,62.9,28.97,NNW,338,0.0,0.0,66,0.00,CLR,,0.00,WeatherDisplay:10.37,2013-07-15 01:47:00,
2013-07-14 20:49:00,74.7,63.0,28.97,NW,315,0.0,0.0,67,0.00,CLR,,0.00,WeatherDisplay:10.37,2013-07-15 01:49:00,
2013-07-14 20:50:00,74.7,63.0,28.97,NW,315,1.6,1.6,67,0.00,CLR,,0.00,WeatherDisplay:10.37,2013-07-15 01:50:00,
2013-07-14 20:52:00,74.5,63.2,28.97,NW,315,2.3,2.3,68,0.00,CLR,,0.00,WeatherDisplay:10.37,2013-07-15 01:52:00,
2013-07-14 20:55:00,74.1,62.9,28.97,NW,323,0.0,2.0,68,0.00,CLR,,0.00,WeatherDisplay:10.37,2013-07-15 01:55:00,
2013-07-14 20:57:00,73.8,63.0,28.97,NNW,338,0.0,0.0,69,0.00,CLR,,0.00,WeatherDisplay:10.37,2013-07-15 01:57:00,
2013-07-14 20:58:00,73.8,63.0,28.97,NW,315,0.0,0.0,69,0.00,CLR,,0.00,WeatherDisplay:10.37,2013-07-15 01:58:00,
2013-07-14 21:00:00,73.6,62.8,28.97,NW,315,0.0,0.0,69,0.00,CLR,,0.00,WeatherDisplay:10.37,2013-07-15 02:00:00,
2013-07-14 21:02:00,73.4,63.0,28.97,NW,315,0.0,0.0,70,0.00,CLR,,0.00,WeatherDisplay:10.37,2013-07-15 02:02:00,
2013-07-14 21:03:00,73.2,62.8,28.97,NW,315,0.0,0.0,70,0.00,CLR,,0.00,WeatherDisplay:10.37,2013-07-15 02:03:00,
2013-07-14 21:05:00,73.0,63.1,28.97,NW,315,0.0,0.0,71,0.00,CLR,,0.00,WeatherDisplay:10.37,2013-07-15 02:05:00,
2013-07-14 21:07:00,72.9,62.5,28.97,NW,315,0.0,0.0,70,0.00,CLR,,0.00,WeatherDisplay:10.37,2013-07-15 02:07:00,
2013-07-14 21:08:00,72.9,62.9,28.97,NW,315,0.0,0.0,71,0.00,CLR,,0.00,WeatherDisplay:10.37,2013-07-15 02:08:00,
2013-07-14 21:10:00,72.8,63.2,28.97,NW,315,0.0,0.0,72,0.00,CLR,,0.00,WeatherDisplay:10.37,2013-07-15 02:10:00,
2013-07-14 21:13:00,72.5,63.0,28.97,NW,315,0.0,0.0,72,0.00,CLR,,0.00,WeatherDisplay:10.37,2013-07-15 02:13:00,
2013-07-14 21:15:00,72.3,63.2,28.97,NW,315,0.0,0.0,73,0.00,CLR,,0.00,WeatherDisplay:10.37,2013-07-15 02:15:00,
2013-07-14 21:18:00,72.1,63.0,28.97,NW,315,0.0,0.0,73,0.00,CLR,,0.00,WeatherDisplay:10.37,2013-07-15 02:18:00,
2013-07-14 21:20:00,72.0,62.8,28.97,NW,315,0.0,0.0,73,0.00,CLR,,0.00,WeatherDisplay:10.37,2013-07-15 02:20:00,
2013-07-14 21:23:00,71.8,63.0,28.97,NW,315,0.0,0.0,74,0.00,CLR,,0.00,WeatherDisplay:10.37,2013-07-15 02:23:00,
2013-07-14 21:24:00,71.6,62.9,28.97,NW,315,0.0,0.0,74,0.00,CLR,,0.00,WeatherDisplay:10.37,2013-07-15 02:24:00,
2013-07-14 21:25:00,71.6,63.3,29.00,NW,315,0.0,0.0,75,0.00,CLR,,0.00,WeatherDisplay:10.37,2013-07-15 02:25:00,
2013-07-14 21:28:00,71.4,63.5,29.00,NW,315,0.0,0.0,76,0.00,CLR,,0.00,WeatherDisplay:10.37,2013-07-15 02:28:00,
2013-07-14 21:29:00,71.4,63.5,29.00,NW,315,0.0,0.0,76,0.00,CLR,,0.00,WeatherDisplay:10.37,2013-07-15 02:29:00,
2013-07-14 21:30:00,71.4,63.5,29.00,NW,315,0.0,0.0,76,0.00,CLR,,0.00,WeatherDisplay:10.37,2013-07-15 02:30:00,
2013-07-14 21:31:00,71.2,63.3,29.00,NW,315,0.0,0.0,76,0.00,CLR,,0.00,WeatherDisplay:10.37,2013-07-15 02:31:00,
2013-07-14 21:33:00,71.2,63.3,29.00,WNW,292,0.0,0.0,76,0.00,CLR,,0.00,WeatherDisplay:10.37,2013-07-15 02:33:00,
2013-07-14 21:34:00,71.1,63.5,29.00,WNW,292,0.0,0.0,77,0.00,CLR,,0.00,WeatherDisplay:10.37,2013-07-15 02:34:00,
2013-07-14 21:35:00,71.1,63.5,29.00,WNW,292,0.0,0.0,77,0.00,CLR,,0.00,WeatherDisplay:10.37,2013-07-15 02:35:00,
2013-07-14 21:36:00,71.1,63.5,29.00,WNW,292,0.0,0.0,77,0.00,CLR,,0.00,WeatherDisplay:10.37,2013-07-15 02:36:00,
2013-07-14 21:38:00,70.9,63.7,29.00,West,270,2.3,2.3,78,0.00,CLR,,0.00,WeatherDisplay:10.37,2013-07-15 02:38:00,
2013-07-14 21:39:00,70.9,63.7,29.00,NW,315,1.2,0.0,78,0.00,CLR,,0.00,WeatherDisplay:10.37,2013-07-15 02:39:00,
2013-07-14 21:40:00,70.7,63.5,29.00,West,270,0.0,0.0,78,0.00,CLR,,0.00,WeatherDisplay:10.37,2013-07-15 02:40:00,
2013-07-14 21:41:00,70.7,63.5,29.00,NW,315,0.0,0.0,78,0.00,CLR,,0.00,WeatherDisplay:10.37,2013-07-15 02:41:00,
2013-07-14 21:43:00,70.7,63.9,29.00,NW,315,0.0,0.0,79,0.00,CLR,,0.00,WeatherDisplay:10.37,2013-07-15 02:43:00,
2013-07-14 21:44:00,70.5,63.3,29.00,NW,315,0.0,0.0,78,0.00,CLR,,0.00,WeatherDisplay:10.37,2013-07-15 02:44:00,
2013-07-14 21:45:00,70.5,63.7,29.00,NW,315,0.0,0.0,79,0.00,CLR,,0.00,WeatherDisplay:10.37,2013-07-15 02:45:00,
2013-07-14 21:46:00,70.5,63.7,29.00,NW,315,0.0,0.0,79,0.00,CLR,,0.00,WeatherDisplay:10.37,2013-07-15 02:46:00,
2013-07-14 21:48:00,70.3,63.5,29.00,NW,315,0.0,0.0,79,0.00,CLR,,0.00,WeatherDisplay:10.37,2013-07-15 02:48:00,
2013-07-14 21:49:00,70.2,63.3,29.00,NW,315,0.0,0.0,79,0.00,CLR,,0.00,WeatherDisplay:10.37,2013-07-15 02:49:00,
2013-07-14 21:51:00,70.2,63.3,29.00,NW,315,0.0,0.0,79,0.00,CLR,,0.00,WeatherDisplay:10.37,2013-07-15 02:51:00,
2013-07-14 21:53:00,70.0,63.2,29.00,NW,315,0.0,0.0,79,0.00,CLR,,0.00,WeatherDisplay:10.37,2013-07-15 02:53:00,
2013-07-14 21:55:00,70.0,63.5,29.00,NW,315,0.0,0.0,80,0.00,CLR,,0.00,WeatherDisplay:10.37,2013-07-15 02:55:00,
2013-07-14 21:56:00,69.8,63.3,29.00,NW,315,0.0,0.0,80,0.00,CLR,,0.00,WeatherDisplay:10.37,2013-07-15 02:56:00,
2013-07-14 21:57:00,69.8,63.3,29.00,NW,315,0.0,0.0,80,0.00,CLR,,0.00,WeatherDisplay:10.37,2013-07-15 02:57:00,
2013-07-14 21:58:00,69.8,63.3,29.00,NW,315,0.0,0.0,80,0.00,CLR,,0.00,WeatherDisplay:10.37,2013-07-15 02:58:00,
2013-07-14 22:00:00,69.6,63.5,29.00,NW,315,0.0,0.0,81,0.00,CLR,,0.00,WeatherDisplay:10.37,2013-07-15 03:00:00,
2013-07-14 22:01:00,69.6,63.5,29.00,NW,315,0.0,0.0,81,0.00,CLR,,0.00,WeatherDisplay:10.37,2013-07-15 03:01:00,
2013-07-14 22:02:00,69.6,63.5,29.00,NW,315,0.0,0.0,81,0.00,CLR,,0.00,WeatherDisplay:10.37,2013-07-15 03:02:00,
2013-07-14 22:03:00,69.4,63.4,29.00,NW,315,0.0,0.0,81,0.00,CLR,,0.00,WeatherDisplay:10.37,2013-07-15 03:03:00,
2013-07-14 22:05:00,69.4,63.4,29.00,NW,315,0.0,0.0,81,0.00,CLR,,0.00,WeatherDisplay:10.37,2013-07-15 03:05:00,
2013-07-14 22:06:00,69.3,63.2,29.00,NW,315,0.0,0.0,81,0.00,CLR,,0.00,WeatherDisplay:10.37,2013-07-15 03:06:00,
2013-07-14 22:07:00,69.3,63.2,29.00,NW,315,0.0,0.0,81,0.00,CLR,,0.00,WeatherDisplay:10.37,2013-07-15 03:07:00,
2013-07-14 22:09:00,69.1,63.0,29.00,NW,315,0.0,0.0,81,0.00,CLR,,0.00,WeatherDisplay:10.37,2013-07-15 03:09:00,
2013-07-14 22:10:00,69.1,63.0,29.00,NW,315,0.0,0.0,81,0.00,CLR,,0.00,WeatherDisplay:10.37,2013-07-15 03:10:00,
2013-07-14 22:11:00,69.1,63.0,29.00,NW,315,0.0,0.0,81,0.00,CLR,,0.00,WeatherDisplay:10.37,2013-07-15 03:11:00,
2013-07-14 22:12:00,68.9,62.8,29.00,NW,315,0.0,0.0,81,0.00,CLR,,0.00,WeatherDisplay:10.37,2013-07-15 03:12:00,
2013-07-14 22:14:00,68.9,62.8,29.00,NW,315,0.0,0.0,81,0.00,CLR,,0.00,WeatherDisplay:10.37,2013-07-15 03:14:00,
2013-07-14 22:15:00,68.9,62.8,29.00,NW,315,0.0,0.0,81,0.00,CLR,,0.00,WeatherDisplay:10.37,2013-07-15 03:15:00,
2013-07-14 22:16:00,68.9,62.8,29.00,WNW,292,0.0,0.0,81,0.00,CLR,,0.00,WeatherDisplay:10.37,2013-07-15 03:16:00,
2013-07-14 22:17:00,68.9,62.8,29.00,WNW,292,0.0,0.0,81,0.00,CLR,,0.00,WeatherDisplay:10.37,2013-07-15 03:17:00,
2013-07-14 22:19:00,68.7,63.0,29.00,NW,315,0.0,0.0,82,0.00,CLR,,0.00,WeatherDisplay:10.37,2013-07-15 03:19:00,
2013-07-14 22:20:00,68.7,63.0,29.00,NW,315,0.0,0.0,82,0.00,CLR,,0.00,WeatherDisplay:10.37,2013-07-15 03:20:00,
2013-07-14 22:21:00,68.7,63.0,29.00,NW,315,0.0,0.0,82,0.00,CLR,,0.00,WeatherDisplay:10.37,2013-07-15 03:21:00,
2013-07-14 22:22:00,68.5,62.8,29.00,West,270,0.0,0.0,82,0.00,CLR,,0.00,WeatherDisplay:10.37,2013-07-15 03:22:00,
2013-07-14 22:24:00,68.5,63.2,29.00,NW,315,1.2,0.0,83,0.00,CLR,,0.00,WeatherDisplay:10.37,2013-07-15 03:24:00,
2013-07-14 22:25:00,68.5,63.2,29.00,NW,315,1.2,0.0,83,0.00,CLR,,0.00,WeatherDisplay:10.37,2013-07-15 03:25:00,
2013-07-14 22:27:00,68.5,63.2,29.00,WNW,292,0.0,0.0,83,0.00,CLR,,0.00,WeatherDisplay:10.37,2013-07-15 03:27:00,
2013-07-14 22:29:00,68.5,63.5,29.00,NW,315,1.2,0.0,84,0.00,CLR,,0.00,WeatherDisplay:10.37,2013-07-15 03:29:00,
2013-07-14 22:30:00,68.5,63.5,29.00,NW,315,0.0,0.0,84,0.00,CLR,,0.00,WeatherDisplay:10.37,2013-07-15 03:30:00,
2013-07-14 22:32:00,68.5,63.5,29.00,NW,315,0.0,0.0,84,0.00,CLR,,0.00,WeatherDisplay:10.37,2013-07-15 03:32:00,
2013-07-14 22:33:00,68.5,63.5,29.00,NW,315,0.0,0.0,84,0.00,CLR,,0.00,WeatherDisplay:10.37,2013-07-15 03:33:00,
2013-07-14 22:35:00,68.4,63.3,29.00,NNW,338,0.0,0.0,84,0.00,CLR,,0.00,WeatherDisplay:10.37,2013-07-15 03:35:00,
2013-07-14 22:37:00,68.4,63.3,29.00,NW,315,2.0,0.0,84,0.00,CLR,,0.00,WeatherDisplay:10.37,2013-07-15 03:37:00,
2013-07-14 22:38:00,68.2,63.2,29.00,NW,315,2.3,2.3,84,0.00,CLR,,0.00,WeatherDisplay:10.37,2013-07-15 03:38:00,
2013-07-14 22:40:00,68.2,63.5,29.00,NW,315,0.0,0.0,85,0.00,CLR,,0.00,WeatherDisplay:10.37,2013-07-15 03:40:00,
2013-07-14 22:42:00,68.2,63.5,29.00,NW,315,0.0,0.0,85,0.00,CLR,,0.00,WeatherDisplay:10.37,2013-07-15 03:42:00,
2013-07-14 22:43:00,68.2,63.5,29.00,NNW,338,0.0,0.0,85,0.00,CLR,,0.00,WeatherDisplay:10.37,2013-07-15 03:43:00,
2013-07-14 22:44:00,68.0,63.3,29.00,NNW,338,0.0,0.0,85,0.00,CLR,,0.00,WeatherDisplay:10.37,2013-07-15 03:44:00,
2013-07-14 22:45:00,68.0,63.3,29.00,NW,315,0.0,0.0,85,0.00,CLR,,0.00,WeatherDisplay:10.37,2013-07-15 03:45:00,
2013-07-14 22:47:00,68.0,63.7,29.00,NW,315,0.0,0.0,86,0.00,CLR,,0.00,WeatherDisplay:10.37,2013-07-15 03:47:00,
2013-07-14 22:48:00,68.0,63.7,29.00,NW,315,0.0,0.0,86,0.00,CLR,,0.00,WeatherDisplay:10.37,2013-07-15 03:48:00,
2013-07-14 22:49:00,68.0,63.7,29.00,NW,315,0.0,0.0,86,0.00,CLR,,0.00,WeatherDisplay:10.37,2013-07-15 03:49:00,
2013-07-14 22:50:00,67.8,63.5,29.00,NW,315,0.0,0.0,86,0.00,CLR,,0.00,WeatherDisplay:10.37,2013-07-15 03:50:00,
2013-07-14 22:53:00,67.8,63.5,29.00,NW,315,0.0,0.0,86,0.00,CLR,,0.00,WeatherDisplay:10.37,2013-07-15 03:53:00,
2013-07-14 22:54:00,67.8,63.5,29.00,NW,315,2.9,0.0,86,0.00,CLR,,0.00,WeatherDisplay:10.37,2013-07-15 03:54:00,
2013-07-14 22:55:00,67.8,63.5,29.00,NW,315,2.4,2.4,86,0.00,CLR,,0.00,WeatherDisplay:10.37,2013-07-15 03:55:00,
2013-07-14 22:58:00,67.8,63.8,29.00,NW,315,1.2,1.6,87,0.00,CLR,,0.00,WeatherDisplay:10.37,2013-07-15 03:58:00,
2013-07-14 22:59:00,67.6,63.6,29.00,NW,315,0.0,0.0,87,0.00,CLR,,0.00,WeatherDisplay:10.37,2013-07-15 03:59:00,
2013-07-14 23:01:00,67.6,64.0,29.00,NW,315,0.0,0.0,88,0.00,CLR,,0.00,WeatherDisplay:10.37,2013-07-15 04:01:00,
2013-07-14 23:06:00,67.6,64.0,29.00,NW,315,0.0,0.0,88,0.00,CLR,,0.00,WeatherDisplay:10.37,2013-07-15 04:06:00,
2013-07-14 23:11:00,67.5,63.8,29.00,NW,315,0.0,0.0,88,0.00,CLR,,0.00,WeatherDisplay:10.37,2013-07-15 04:11:00,
2013-07-14 23:16:00,67.3,63.6,29.00,NW,315,0.0,0.0,88,0.00,CLR,,0.00,WeatherDisplay:10.37,2013-07-15 04:16:00,
2013-07-14 23:17:00,67.1,63.4,29.00,NW,315,0.0,0.0,88,0.00,CLR,,0.00,WeatherDisplay:10.37,2013-07-15 04:17:00,
2013-07-14 23:21:00,67.1,63.4,29.00,NW,315,0.0,0.0,88,0.00,CLR,,0.00,WeatherDisplay:10.37,2013-07-15 04:21:00,
2013-07-14 23:22:00,67.1,63.4,29.00,NW,315,0.0,0.0,88,0.00,CLR,,0.00,WeatherDisplay:10.37,2013-07-15 04:22:00,
2013-07-14 23:26:00,66.9,63.2,29.00,NW,315,0.0,0.0,88,0.00,CLR,,0.00,WeatherDisplay:10.37,2013-07-15 04:26:00,
2013-07-14 23:27:00,66.9,63.2,29.00,NW,315,0.0,0.0,88,0.00,CLR,,0.00,WeatherDisplay:10.37,2013-07-15 04:27:00,
2013-07-14 23:31:00,67.1,63.7,29.00,NW,315,0.0,0.0,89,0.00,CLR,,0.00,WeatherDisplay:10.37,2013-07-15 04:31:00,
2013-07-14 23:32:00,66.9,63.6,29.00,NW,315,0.0,0.0,89,0.00,CLR,,0.00,WeatherDisplay:10.37,2013-07-15 04:32:00,
2013-07-14 23:36:00,66.9,63.6,29.00,NW,315,0.0,0.0,89,0.00,CLR,,0.00,WeatherDisplay:10.37,2013-07-15 04:36:00,
2013-07-14 23:37:00,66.9,63.6,29.00,NW,315,0.0,0.0,89,0.00,CLR,,0.00,WeatherDisplay:10.37,2013-07-15 04:37:00,
2013-07-14 23:38:00,66.9,63.6,29.00,NW,315,0.0,0.0,89,0.00,CLR,,0.00,WeatherDisplay:10.37,2013-07-15 04:38:00,
2013-07-14 23:41:00,66.9,63.6,29.03,NW,315,0.0,0.0,89,0.00,CLR,,0.00,WeatherDisplay:10.37,2013-07-15 04:41:00,
2013-07-14 23:42:00,66.9,63.6,29.03,NW,315,0.0,0.0,89,0.00,CLR,,0.00,WeatherDisplay:10.37,2013-07-15 04:42:00,
2013-07-14 23:43:00,66.7,63.4,29.03,NW,315,0.0,0.0,89,0.00,CLR,,0.00,WeatherDisplay:10.37,2013-07-15 04:43:00,
2013-07-14 23:47:00,66.7,63.4,29.03,NW,315,0.0,0.0,89,0.00,CLR,,0.00,WeatherDisplay:10.37,2013-07-15 04:47:00,
2013-07-14 23:49:00,66.7,63.4,29.03,NW,315,0.0,0.0,89,0.00,CLR,,0.00,WeatherDisplay:10.37,2013-07-15 04:49:00,
2013-07-14 23:52:00,66.6,63.2,29.03,NW,315,0.0,0.0,89,0.00,CLR,,0.00,WeatherDisplay:10.37,2013-07-15 04:52:00,
2013-07-14 23:53:00,66.6,63.2,29.03,NW,315,0.0,0.0,89,0.00,CLR,,0.00,WeatherDisplay:10.37,2013-07-15 04:53:00,
2013-07-14 23:54:00,66.6,63.2,29.03,NW,315,0.0,0.0,89,0.00,CLR,,0.00,WeatherDisplay:10.37,2013-07-15 04:54:00,
2013-07-14 23:57:00,66.4,63.0,29.00,NW,315,0.0,0.0,89,0.00,CLR,,0.00,WeatherDisplay:10.37,2013-07-15 04:57:00,
2013-07-14 23:58:00,66.4,63.0,29.00,NW,315,0.0,0.0,89,0.00,CLR,,0.00,WeatherDisplay:10.37,2013-07-15 04:58:00,
2013-07-14 23:59:00,66.4,63.4,29.00,NW,315,0.0,0.0,90,0.00,CLR,,0.00,WeatherDisplay:10.37,2013-07-15 04:59:00,